GFSNW_700_rhum_051.txt.gz
RH
67 63 59 54 65 26 10 31 47 54 60 59 50 53 68 82 82 74 68 77 98 89 93 88 84 92 92 74 74 80 72 98 98 97 92 86 89 77 72 63 68 60 61 37
64 66 61 57 56 61 19 34 44 51 54 78 57 58 60 68 70 64 62 65 66 77 90 83 85 75 68 77 77 85 74 77 96 96 90 83 85 82 80 71 56 71 51 38
64 63 62 58 56 64 30 14 36 46 56 60 74 69 70 67 65 61 60 63 68 66 77 69 82 74 67 73 78 79 75 67 72 67 70 75 80 74 81 75 75 60 48 41
71 61 58 57 58 58 55 18 36 40 56 60 63 66 63 69 72 63 62 62 64 82 82 81 81 76 72 73 82 82 80 74 66 52 47 53 58 62 73 78 74 64 56 45
78 69 57 52 58 59 65 26 18 40 48 59 62 65 62 62 58 64 72 70 66 66 73 71 76 80 86 86 76 77 73 72 71 66 59 56 54 57 70 65 64 71 54 49
74 68 64 52 58 61 66 37 22 36 54 68 70 98 86 63 64 62 64 76 87 83 86 66 64 74 82 90 89 82 75 79 76 84 69 65 72 37 38 44 45 44 76 50
70 64 67 59 62 68 72 52 28 18 54 75 92 71 72 74 71 76 66 68 90 83 75 74 74 77 75 77 70 93 96 92 84 92 76 81 57 46 49 48 54 47 48 50
68 67 68 62 71 75 75 82 47 27 22 71 80 77 73 72 79 74 74 74 77 85 86 98 96 98 95 97 87 86 92 86 91 83 68 62 54 47 60 74 75 55 47 53
78 75 67 64 73 78 81 82 88 56 35 42 46 89 82 79 100 94 84 84 83 91 87 86 97 86 76 89 91 82 84 91 88 90 82 66 86 72 76 84 94 74 76 94
81 77 67 72 73 79 84 87 90 91 70 36 26 30 78 91 90 95 96 84 92 97 83 94 91 89 82 83 84 99 98 92 92 88 88 76 70 76 85 97 100 95 97 91
79 76 71 80 84 81 84 91 90 90 83 82 45 27 24 51 100 100 100 88 91 97 97 94 89 79 87 87 87 94 94 91 88 89 94 83 62 81 94 99 98 98 99 94
81 74 71 82 84 80 79 87 90 89 83 75 93 71 30 25 31 95 100 99 99 99 100 95 91 84 94 84 85 98 91 83 80 83 80 74 65 87 94 96 92 95 97 95
86 80 74 82 89 92 86 80 88 88 77 71 75 87 77 34 35 34 41 98 100 95 96 100 100 96 91 87 87 97 88 85 84 84 68 68 71 78 91 95 96 99 96 98
88 86 78 82 89 93 86 89 92 95 81 67 67 72 67 80 80 69 62 44 91 100 95 91 88 96 86 85 83 86 86 87 73 74 72 71 76 74 78 82 94 97 98 98
82 84 84 86 93 94 90 95 94 82 66 57 33 26 44 40 40 34 28 49 84 98 98 90 91 88 92 76 78 70 68 61 74 89 92 88 96 84 82 90 92 86 88 95
81 83 87 90 94 95 95 83 64 40 37 47 74 86 78 69 44 69 86 52 43 92 98 98 87 91 82 85 96 81 58 59 67 92 74 79 78 80 83 87 86 83 80 76
82 84 87 90 91 92 72 74 48 32 55 95 92 92 100 73 30 16 38 53 25 62 97 96 98 95 96 83 89 95 64 64 65 66 70 76 78 78 82 79 75 72 69 66
79 77 83 85 86 78 64 39 53 90 96 96 96 98 98 96 100 96 60 47 42 84 95 95 99 97 88 87 62 68 66 64 66 68 69 70 73 78 76 73 74 76 76 76
80 75 78 81 86 68 68 92 96 96 97 97 99 99 100 100 99 100 72 56 38 54 96 97 98 96 93 73 64 67 66 64 66 67 70 70 72 70 72 76 79 75 82 85
86 78 78 80 84 69 90 90 94 96 96 97 97 100 100 96 98 100 98 73 95 97 92 96 92 75 65 71 72 74 72 76 82 82 83 87 86 85 81 75 75 80 80 78
81 81 77 84 85 84 89 93 95 96 96 97 98 99 97 98 98 97 91 96 97 89 85 97 99 71 58 64 63 70 78 78 88 96 97 87 87 91 98 100 99 89 80 74
80 83 76 80 87 88 91 94 95 96 96 96 98 98 97 99 99 96 97 97 96 98 98 97 98 63 69 71 71 68 68 77 82 97 100 100 99 98 99 99 100 97 94 91
85 84 79 87 91 89 91 96 98 98 98 98 97 98 98 100 95 96 97 98 97 97 100 100 78 73 72 74 72 75 82 93 98 99 99 98 99 98 98 98 99 90 82 82
89 85 74 81 90 90 94 94 95 97 99 97 96 96 97 96 97 97 100 100 97 100 99 92 77 77 72 81 82 83 95 88 98 96 96 96 94 96 96 97 98 98 98 98
88 83 72 72 86 96 97 96 95 96 96 97 96 96 94 96 96 94 94 99 99 99 92 77 75 72 69 81 92 96 100 94 94 94 90 92 94 93 94 94 94 90 82 80
90 85 75 74 74 87 94 93 95 95 96 96 96 96 98 96 96 96 97 96 93 85 80 78 72 67 66 80 93 99 98 88 89 89 93 94 92 91 89 80 71 66 61 55
84 67 68 72 71 72 71 69 73 92 94 96 96 96 100 97 98 92 91 84 86 89 79 71 67 70 81 100 100 94 97 97 98 98 96 96 94 90 85 78 70 63 57 48

GFSNW_700_rhum_054.txt.gz
RH
59 53 43 38 42 48 56 11 34 47 52 59 83 73 66 71 66 60 67 77 86 85 85 80 82 88 86 80 80 86 88 81 97 98 94 96 98 97 95 97 86 56 60 48
61 57 51 41 37 37 49 28 22 45 50 93 74 67 77 68 66 64 77 76 63 79 86 78 81 82 73 73 75 79 71 80 98 96 83 86 85 79 78 72 68 64 71 50
62 56 54 46 37 34 41 55 16 33 50 59 86 96 92 91 69 64 60 66 70 73 74 81 79 67 61 73 71 74 73 72 85 76 78 73 77 71 73 74 66 59 49 45
54 54 58 50 38 41 46 52 27 29 48 61 65 80 95 95 87 66 61 60 72 82 80 79 82 79 68 66 74 79 75 72 68 62 53 45 53 59 86 82 66 64 59 52
46 51 52 47 48 50 52 58 37 19 33 47 64 83 99 91 97 71 82 68 78 80 73 75 72 75 75 71 70 76 78 70 65 69 67 58 53 49 48 57 62 66 63 53
52 46 47 48 52 48 54 63 47 28 26 54 76 97 96 100 78 88 67 73 87 82 79 73 67 76 80 84 75 78 73 62 70 86 80 69 58 40 37 35 38 42 49 39
58 56 51 60 55 50 57 67 77 31 32 47 91 100 99 85 84 86 74 74 91 90 86 73 69 70 67 84 89 92 95 81 76 86 73 94 43 52 44 38 39 38 42 47
64 64 59 63 55 55 62 68 78 81 35 27 72 67 82 84 84 82 83 72 74 85 81 95 88 93 92 91 90 78 93 91 82 86 80 52 46 50 46 60 57 57 47 52
66 68 65 62 57 58 64 72 78 83 87 53 42 34 77 85 100 100 84 83 80 86 83 85 90 90 74 88 86 92 93 90 82 82 75 86 84 72 65 79 88 74 61 70
64 66 67 62 56 57 70 75 85 82 83 86 58 49 27 76 94 99 98 94 88 92 82 85 86 87 83 83 83 85 91 88 90 83 78 76 71 68 78 96 97 89 77 70
62 65 67 63 61 64 68 74 79 84 75 75 79 83 71 28 65 99 100 97 90 92 89 87 83 76 80 78 77 83 87 88 84 87 94 83 64 63 86 84 95 100 98 96
57 64 68 68 64 69 74 72 76 78 75 71 73 74 83 63 31 40 96 96 98 99 100 87 86 86 81 81 84 80 87 80 80 75 78 74 73 69 83 95 100 98 100 100
61 66 71 73 70 73 77 74 85 93 74 64 65 67 69 87 77 28 32 93 96 98 98 97 96 91 81 84 80 83 80 90 84 82 65 75 66 75 74 79 88 99 99 98
59 66 72 75 73 78 94 89 90 99 85 68 55 62 67 78 95 68 38 39 58 90 97 98 97 98 86 79 83 82 83 84 78 73 68 70 72 70 69 76 88 87 94 92
65 66 69 78 78 82 85 88 90 72 72 52 43 47 33 35 46 88 95 83 66 46 68 99 92 80 90 91 81 80 82 83 83 75 73 74 76 82 75 77 83 87 91 89
62 69 72 71 78 78 84 70 65 68 58 52 79 82 88 79 54 59 66 71 78 50 66 83 98 94 97 91 94 76 67 64 76 94 94 91 90 82 78 80 80 78 79 79
67 69 69 70 72 80 82 64 50 37 43 85 89 90 93 94 55 21 13 14 59 81 54 59 88 97 98 94 92 85 72 79 78 75 77 79 79 73 75 78 76 75 73 72
75 74 72 70 70 78 58 48 91 95 95 94 90 93 92 99 98 96 47 30 27 47 38 36 58 97 97 97 91 84 82 68 66 72 74 76 74 74 74 75 74 70 69 68
75 76 72 70 72 76 68 90 92 96 96 91 94 95 96 98 97 99 82 100 95 94 70 46 85 96 92 82 76 79 76 72 70 65 71 72 73 74 75 72 67 69 75 73
82 78 71 71 74 83 79 86 90 96 93 91 95 99 95 98 100 100 99 76 100 96 60 75 94 72 75 84 80 85 78 74 77 72 74 79 80 77 74 75 81 80 75 75
88 85 73 74 75 80 83 95 95 95 93 93 97 98 98 98 98 99 99 99 99 100 96 99 98 87 81 84 80 70 70 76 76 77 81 83 83 82 89 94 98 93 84 80
79 84 76 68 73 84 93 96 97 96 96 96 97 97 96 97 97 99 98 98 98 96 99 98 96 89 83 81 75 71 68 72 82 92 96 100 100 100 98 98 98 100 100 96
90 89 74 68 83 83 88 96 95 96 97 96 96 96 96 96 96 96 100 97 97 96 100 100 93 85 80 73 75 73 72 78 94 100 97 97 100 98 98 99 100 99 96 91
96 89 78 69 80 84 83 89 94 96 96 96 96 96 97 97 96 96 99 100 100 99 99 99 91 85 78 73 80 84 85 88 94 97 98 98 97 97 97 96 96 96 97 97
98 89 74 66 68 85 88 90 89 95 95 95 96 93 94 95 96 96 96 100 99 99 99 98 89 82 74 78 94 98 100 98 98 96 95 97 97 96 95 91 89 83 84 85
100 91 70 68 67 70 78 82 87 93 96 95 95 95 96 95 96 97 95 99 93 98 96 89 80 73 72 72 96 100 99 98 97 97 97 97 96 94 90 86 82 77 72 65
91 77 72 69 70 71 72 69 71 75 78 87 95 96 96 94 96 92 92 96 95 100 97 91 78 73 85 96 100 99 98 97 97 97 98 97 92 89 85 78 73 59 46 36

GFSNW_700_rhum_057.txt.gz
RH
56 51 47 47 39 30 29 42 17 30 45 78 67 73 78 70 64 65 71 82 84 81 72 78 81 90 85 87 91 92 96 88 98 98 94 96 95 81 87 82 82 66 61 44
56 47 42 51 41 30 27 40 41 26 38 78 98 75 71 70 62 57 64 73 79 82 83 78 76 82 84 84 82 89 81 77 97 98 98 98 98 93 89 88 79 73 68 50
54 50 44 41 34 33 40 45 43 35 44 56 88 96 96 80 77 69 62 62 66 82 82 80 71 67 71 78 74 77 72 71 78 72 70 73 88 90 94 92 96 73 65 52
50 53 47 46 40 38 43 50 44 31 43 54 69 79 99 98 96 88 69 65 68 79 79 74 71 68 64 69 74 78 76 68 69 67 61 51 50 66 81 82 78 68 60 51
51 44 36 37 41 45 45 51 56 42 24 44 71 80 99 98 98 95 86 76 76 82 77 77 76 71 65 64 68 76 78 70 69 68 67 65 58 45 42 65 72 73 65 58
40 43 39 40 42 44 44 48 64 62 39 46 95 96 89 99 85 98 72 80 85 81 78 77 75 77 79 76 73 74 78 74 60 68 75 78 66 41 47 40 34 36 58 47
31 37 39 46 47 46 45 48 63 73 47 49 100 100 96 100 88 90 73 76 87 90 86 82 75 66 72 83 87 85 84 78 67 83 84 85 42 49 46 44 42 39 34 41
31 34 41 49 52 51 49 47 59 72 78 43 50 81 85 97 97 90 79 75 88 93 84 80 83 83 76 72 74 92 94 92 76 77 85 50 42 45 50 48 42 42 32 33
29 37 46 50 56 53 51 51 64 71 75 78 66 48 28 73 100 100 90 90 80 84 86 89 88 83 75 86 78 83 93 91 85 82 79 88 86 74 66 64 63 56 54 54
23 34 40 47 55 56 56 54 59 70 76 79 84 86 59 37 96 100 90 84 88 92 90 88 86 86 81 86 82 81 93 87 93 80 88 75 61 71 68 87 63 70 64 56
12 23 31 42 55 58 58 62 66 71 65 66 75 82 84 72 42 92 97 100 95 97 90 89 81 75 84 83 77 73 84 83 83 79 92 83 63 73 75 74 84 90 96 80
8 15 24 42 51 58 64 67 66 62 60 69 74 67 70 78 89 41 90 100 81 98 96 94 94 86 80 78 82 78 81 71 76 69 64 61 71 70 64 76 97 100 100 98
9 13 20 35 49 54 66 63 69 79 71 65 70 64 65 65 74 91 38 93 100 100 96 99 97 96 88 81 73 86 85 80 82 85 75 75 70 75 66 73 82 96 98 99
11 12 17 35 52 58 67 73 79 82 69 67 48 49 62 69 74 86 92 32 78 97 99 99 96 98 97 91 84 80 84 83 84 81 74 73 69 72 72 71 78 93 94 96
12 12 16 36 56 64 70 76 58 57 60 52 63 65 40 41 56 66 96 94 64 40 73 89 95 98 100 97 97 86 74 84 88 84 81 78 67 70 74 76 81 84 87 89
10 11 12 36 58 62 68 51 54 49 39 61 92 95 97 96 55 57 86 76 92 96 86 55 50 48 86 98 85 65 58 76 78 84 77 71 79 93 91 89 87 87 86 83
9 11 13 43 58 63 69 55 77 87 93 90 91 96 97 95 95 76 33 18 21 43 59 67 78 70 63 95 97 85 75 85 84 86 82 73 82 97 99 99 91 83 82 79
10 17 23 52 58 62 69 58 81 84 89 90 82 92 94 97 95 96 56 38 30 27 37 39 41 53 60 76 73 90 96 91 88 82 80 80 75 79 87 86 81 80 78 75
11 19 29 49 58 64 63 61 69 82 90 88 90 94 91 93 94 94 93 84 96 94 89 74 97 99 63 70 94 96 95 89 86 82 81 74 72 73 76 78 78 76 73 70
11 24 29 53 62 64 69 67 82 92 97 93 95 100 99 98 98 95 98 100 100 96 99 100 79 55 67 96 93 91 88 84 94 93 82 82 84 86 87 84 80 75 74 77
14 30 35 57 62 64 75 78 83 86 89 92 96 98 98 99 98 97 97 99 99 98 96 92 99 86 94 98 96 97 98 91 87 88 86 92 88 98 92 90 95 95 92 86
20 32 44 53 59 73 71 75 86 88 94 94 96 96 96 96 98 97 97 96 98 95 99 99 98 97 98 96 97 96 96 94 87 94 96 94 95 97 100 100 99 99 100 100
26 38 48 59 64 65 70 81 90 89 92 95 95 96 96 96 97 97 97 97 98 97 99 96 99 98 90 83 84 88 94 86 85 91 91 86 93 99 97 98 99 100 98 100
51 59 69 67 64 69 70 78 85 94 90 90 94 95 96 96 96 96 97 97 97 100 97 97 100 93 85 76 85 84 88 91 100 94 88 95 100 99 98 98 96 96 94 94
70 65 72 67 62 62 65 66 80 82 87 91 92 94 96 95 96 97 98 100 98 93 94 97 97 85 75 73 86 100 99 97 100 99 96 97 97 96 96 95 95 94 89 81
97 76 59 66 70 73 73 73 70 73 81 85 93 96 96 96 96 97 95 97 93 98 98 96 95 89 73 74 71 98 100 99 97 97 97 97 98 97 97 93 86 78 70 56
91 83 70 75 75 73 70 71 72 71 72 76 85 96 96 94 96 96 97 97 95 96 95 90 90 82 79 94 99 100 99 98 97 97 97 96 96 96 94 85 78 66 48 30

GFSNW_700_rhum_060.txt.gz
RH
46 51 51 46 38 32 33 36 39 42 42 62 55 52 60 60 67 70 85 80 79 76 81 86 85 88 93 96 91 89 89 87 100 100 99 88 99 95 94 77 82 76 65 48
32 43 49 43 31 31 30 36 39 37 31 70 72 71 70 65 60 69 76 83 81 77 75 72 80 83 86 86 86 88 85 86 96 99 98 98 100 95 89 88 83 78 72 56
27 29 34 29 32 31 32 39 43 42 41 64 79 83 79 74 68 67 67 68 81 80 77 74 71 77 83 84 89 86 81 73 72 69 67 72 91 82 93 88 96 82 75 66
21 23 25 27 27 29 34 37 45 46 43 73 99 92 91 83 85 72 66 71 77 87 78 78 67 70 72 83 80 78 78 74 70 74 69 72 72 72 81 90 77 91 74 71
23 25 25 24 26 28 32 37 45 51 35 50 65 80 98 89 90 87 74 66 78 85 82 74 62 64 68 74 77 80 80 73 70 68 65 65 60 52 76 78 83 88 82 71
26 29 28 27 27 30 34 38 43 55 50 47 67 89 96 91 97 95 82 79 80 86 83 78 78 77 69 65 67 71 79 81 70 62 64 70 65 42 50 44 46 55 80 40
23 27 28 28 28 28 36 39 40 48 57 51 93 96 95 89 95 93 95 82 89 84 84 82 79 77 72 72 78 78 79 82 75 72 85 84 37 51 51 45 47 43 36 32
14 19 24 25 27 31 37 40 42 44 56 69 52 61 85 98 90 95 90 80 91 92 93 92 89 81 72 75 89 90 86 87 79 73 91 55 35 46 49 48 37 39 36 35
8 15 19 24 28 32 36 43 45 46 50 66 74 72 44 46 81 95 95 91 88 96 93 88 89 84 79 82 83 86 94 92 88 84 83 92 77 81 69 69 54 44 43 42
6 9 14 22 27 31 40 49 49 53 52 61 68 73 80 66 60 100 98 95 90 88 97 97 92 84 81 86 83 82 90 89 89 83 82 72 54 66 71 82 62 70 69 70
6 7 7 10 19 32 43 50 53 55 55 56 62 69 75 78 62 73 98 97 94 97 94 96 90 82 84 86 81 75 74 88 92 79 87 81 58 68 69 69 75 84 76 68
6 7 6 9 18 34 45 54 53 57 54 67 77 66 65 67 78 69 77 97 99 99 97 92 92 87 82 76 81 81 79 73 69 67 64 59 71 69 67 65 78 93 98 98
8 7 7 10 17 33 50 59 54 42 39 52 64 64 60 67 68 76 75 60 97 98 99 99 97 90 91 84 78 78 81 78 80 78 67 68 73 71 69 70 77 89 96 97
8 7 7 9 18 39 55 57 42 41 35 41 48 57 52 66 67 68 85 73 53 95 99 100 100 100 97 93 90 86 77 81 81 81 76 75 76 75 74 77 76 79 96 97
8 8 8 11 23 45 54 50 55 67 76 75 79 65 58 65 76 81 84 92 75 40 78 90 95 94 96 90 96 95 80 81 85 79 75 84 81 75 69 71 79 84 92 100
8 9 8 11 26 44 53 51 55 70 77 78 83 95 98 98 80 44 86 93 94 93 55 46 55 67 73 88 95 88 83 94 87 75 74 94 90 73 63 79 92 98 98 96
8 10 8 10 26 40 54 57 58 71 74 72 82 95 98 97 99 81 38 24 21 56 79 87 87 85 95 91 82 66 58 66 74 82 81 78 80 79 73 79 96 98 98 94
8 10 8 13 25 38 51 59 57 67 72 73 70 84 91 86 91 95 86 80 54 51 57 55 38 33 33 34 24 46 64 92 97 99 94 97 99 90 82 85 91 93 90 82
9 9 8 14 24 40 47 54 58 68 76 78 82 90 90 86 89 93 90 90 88 85 93 66 64 83 63 74 99 94 50 81 95 96 94 93 94 89 84 84 83 83 82 78
11 10 8 14 25 34 42 51 65 75 84 90 92 98 100 92 93 97 95 96 96 95 97 100 98 70 64 79 83 93 98 100 97 93 98 96 96 91 85 83 82 79 79 79
15 11 9 16 17 32 44 57 65 75 86 89 94 90 93 94 95 100 99 100 100 99 96 99 100 97 98 97 97 90 90 96 96 99 97 96 96 97 92 90 86 86 89 86
18 13 10 10 26 45 46 54 66 75 83 83 84 89 86 89 96 99 100 98 100 96 100 99 99 97 93 92 86 90 96 98 97 99 100 98 99 100 100 100 100 100 99 99
21 15 10 22 40 43 50 55 66 76 83 92 92 90 90 90 96 96 97 98 98 99 99 92 97 99 95 85 76 84 99 99 97 97 98 100 100 100 97 96 95 96 99 100
19 15 12 25 47 53 55 60 69 78 82 87 88 89 95 91 94 95 96 97 96 97 95 89 92 95 89 78 76 89 99 98 100 100 93 96 100 100 100 100 98 96 96 95
18 17 25 43 54 58 61 66 69 73 78 82 86 87 92 98 94 95 96 96 96 92 88 95 94 93 86 77 74 79 100 100 100 100 98 97 97 98 98 97 97 95 88 78
21 18 22 36 48 64 70 73 71 72 70 71 71 84 100 97 94 98 96 97 93 93 91 95 96 91 85 78 76 82 100 98 99 97 97 97 97 98 96 93 88 80 73 58
26 22 30 46 59 67 69 73 79 79 75 74 80 83 92 100 98 95 94 95 93 96 96 96 96 96 96 92 89 95 98 97 99 97 98 97 97 97 94 91 81 74 59 41

GFSNW_700_rhum_063.txt.gz
RH
6 13 20 24 26 29 28 32 40 36 40 46 44 56 60 61 62 66 85 82 81 87 86 84 83 76 85 79 79 75 78 78 100 98 99 99 100 98 97 82 88 80 71 60
5 12 22 28 28 27 27 31 37 37 38 50 58 64 68 63 63 72 82 81 83 82 84 81 86 80 87 80 84 84 85 91 99 96 100 99 98 99 99 92 84 77 78 63
8 13 15 20 21 24 26 30 37 38 42 42 60 67 72 75 71 67 69 80 83 84 83 79 84 85 87 89 81 88 92 82 77 73 70 73 87 77 98 98 99 85 79 67
10 16 20 22 22 22 24 30 33 36 40 48 44 74 80 81 82 81 69 74 81 87 86 82 78 80 88 90 94 97 96 83 77 79 72 74 76 76 75 87 84 93 79 73
10 15 22 24 24 26 31 34 33 34 42 40 47 73 92 90 94 91 88 69 81 89 83 79 73 68 74 89 94 88 86 77 72 71 73 70 65 62 65 78 85 88 83 73
6 8 13 20 24 27 32 34 36 36 42 46 41 56 78 89 82 96 88 83 77 85 86 81 79 79 76 74 75 79 83 82 80 70 68 71 69 50 56 52 49 64 88 39
4 5 7 11 19 19 26 32 40 41 47 51 50 57 82 88 85 87 88 87 90 85 87 85 82 81 81 77 76 77 76 78 82 70 70 88 41 41 41 42 42 51 47 39
3 3 4 6 9 14 23 33 40 43 45 56 65 65 76 90 91 85 90 94 86 95 94 92 90 86 83 76 72 78 84 85 83 76 89 63 47 40 45 51 41 46 38 38
3 4 4 5 7 9 18 35 45 48 47 58 65 76 66 46 81 92 88 97 88 99 92 95 93 78 80 80 88 97 90 89 93 90 86 91 64 77 68 66 53 64 57 46
4 4 4 5 6 9 19 35 48 54 50 57 63 60 68 77 58 59 86 88 99 99 97 89 86 88 82 82 85 89 91 96 95 85 80 69 55 60 71 77 66 74 80 76
4 3 4 4 4 9 22 37 44 45 44 56 60 64 65 73 79 60 91 98 94 98 97 92 86 87 83 90 84 79 77 83 90 86 91 82 63 63 65 73 66 79 87 79
5 3 3 4 4 12 20 37 40 44 41 38 48 63 70 68 66 77 67 92 98 100 100 96 94 86 83 81 87 84 83 73 71 71 65 61 67 73 75 72 74 80 96 98
7 4 4 3 4 11 23 37 44 55 45 56 50 53 52 56 63 65 80 73 95 98 98 98 99 96 95 88 80 76 76 81 81 78 65 68 70 72 73 77 78 80 96 96
9 7 5 4 4 13 26 36 46 60 66 69 64 54 58 60 66 67 70 79 70 91 97 98 99 100 100 95 90 88 80 80 79 81 75 72 70 78 73 70 73 80 81 96
11 10 7 4 4 14 26 36 45 64 65 69 80 81 84 82 77 80 75 76 87 72 62 95 96 97 99 100 98 98 88 80 85 85 88 94 82 85 84 74 67 76 82 91
11 12 10 5 6 11 19 34 43 62 67 71 83 86 89 93 84 49 64 94 89 92 88 59 48 62 70 77 80 73 71 75 89 83 76 78 77 84 81 75 73 85 89 92
10 11 10 6 6 12 19 33 43 50 67 70 80 85 87 93 91 88 75 43 31 67 85 85 76 67 72 73 65 51 59 71 70 92 85 78 72 77 82 80 69 85 94 95
11 12 10 7 7 10 19 28 41 46 63 67 74 84 89 94 93 86 88 87 76 70 71 68 58 43 32 26 77 84 43 30 65 80 98 91 89 97 98 95 85 86 98 96
14 15 12 9 7 10 20 32 44 56 67 74 87 87 93 89 86 91 92 90 89 79 87 88 65 58 56 54 64 92 100 62 76 82 97 97 100 96 96 86 85 87 88 92
16 17 14 10 9 9 24 36 44 58 68 80 88 87 91 87 89 96 98 96 95 89 89 99 86 72 90 91 88 91 99 99 82 80 90 90 92 99 97 93 87 90 88 85
25 23 16 12 8 17 31 39 40 55 69 75 77 79 81 89 91 97 98 98 100 100 97 100 95 92 96 93 88 87 94 87 85 98 92 97 94 97 96 97 97 96 92 87
30 29 22 14 11 30 36 38 45 53 64 65 71 76 77 79 89 100 100 100 100 95 100 94 96 97 96 94 84 78 79 88 89 92 94 88 89 97 97 98 100 100 97 96
37 33 23 13 19 33 39 44 46 52 57 62 65 72 76 82 97 96 98 97 96 99 98 92 94 92 91 90 78 77 93 100 99 97 97 97 98 98 99 97 97 91 96 95
42 31 15 14 29 39 45 49 56 58 62 63 62 68 76 81 88 92 96 98 97 97 97 88 89 97 91 90 82 78 98 100 100 100 98 97 96 96 96 96 97 98 97 97
46 37 20 22 33 42 37 45 56 58 64 63 64 64 67 74 88 91 96 97 96 95 90 85 93 95 96 95 90 79 85 100 98 100 97 97 97 97 96 98 98 98 96 81
50 46 28 24 28 37 39 43 54 60 66 69 70 69 72 89 94 100 94 96 94 94 93 96 97 96 96 95 91 91 91 95 96 98 97 97 98 97 97 96 96 90 75 64
52 47 42 28 33 49 42 47 57 63 70 77 81 76 73 85 98 96 89 92 94 96 97 96 97 96 96 97 96 93 91 94 94 97 96 96 97 97 97 96 94 80 67 50

GFSNW_700_rhum_066.txt.gz
RH
3 4 6 13 21 25 23 26 33 37 37 44 44 50 54 63 70 73 78 84 93 92 86 77 74 72 70 73 73 69 72 78 98 100 82 82 86 95 95 95 88 85 80 65
4 6 8 11 13 18 22 22 30 35 39 43 53 51 57 61 67 75 82 84 82 85 85 86 86 83 76 72 72 70 71 85 98 99 95 88 89 90 93 100 88 84 84 66
5 7 9 12 14 16 20 23 30 36 42 47 55 61 69 66 66 68 72 78 86 86 89 83 89 88 89 90 89 85 83 76 71 74 67 72 86 91 100 98 99 89 85 73
6 7 10 12 16 18 22 24 28 38 39 49 45 65 75 72 77 73 68 75 82 84 89 86 82 90 93 98 94 95 92 88 78 79 80 78 72 86 81 97 91 98 87 84
4 5 7 8 11 18 23 23 28 37 41 45 47 71 87 88 90 88 88 74 82 87 91 83 75 73 83 92 97 99 98 87 79 76 77 77 74 74 82 83 82 92 90 81
3 4 5 5 7 10 14 17 25 34 42 44 47 55 74 89 91 95 93 91 82 84 90 83 80 80 78 81 89 91 93 88 84 80 72 72 74 50 56 60 57 57 84 46
3 4 4 4 5 6 9 14 22 34 38 42 51 56 67 87 94 87 99 98 94 86 90 89 84 82 85 82 78 79 80 84 89 82 75 82 49 48 46 48 46 49 47 40
3 4 4 4 4 5 10 16 23 32 36 41 47 54 60 86 91 92 97 96 98 100 96 95 88 88 85 81 79 78 84 86 85 81 83 66 43 50 55 47 39 50 49 43
4 4 4 4 4 5 12 18 28 31 34 41 47 52 59 68 68 94 94 95 95 100 95 99 96 84 82 79 88 82 89 86 92 92 86 90 55 79 78 71 62 80 76 69
4 3 4 4 4 5 12 22 29 34 37 38 44 56 63 63 76 56 73 96 90 98 95 90 90 86 83 78 83 86 92 92 96 94 94 76 62 63 63 69 70 77 85 74
4 3 3 4 4 4 11 21 29 38 37 38 38 50 63 66 64 75 69 84 90 98 97 98 91 80 86 88 84 79 77 86 90 93 95 82 65 69 67 76 72 67 93 84
4 3 3 4 3 4 8 17 28 39 44 46 46 56 58 60 63 67 75 81 97 100 97 95 91 84 90 84 89 86 84 73 70 68 64 60 64 70 74 72 78 80 88 96
5 3 4 4 3 4 8 16 28 41 48 52 56 58 58 53 58 62 68 71 81 97 99 99 96 95 95 90 82 79 78 81 82 77 65 69 74 74 74 81 79 79 81 91
8 5 4 4 4 4 6 14 27 42 50 58 67 72 72 70 67 62 66 73 75 74 96 100 98 97 97 96 95 91 84 81 84 84 74 75 72 83 88 84 75 72 76 81
10 9 6 4 4 4 5 10 26 42 48 58 68 74 72 69 55 65 74 67 68 77 77 83 94 96 98 97 93 84 64 75 90 89 92 90 75 76 72 75 76 72 67 82
10 12 11 4 4 4 5 8 23 37 52 60 65 70 78 80 74 55 34 69 86 80 83 84 80 71 88 90 83 70 69 67 65 74 78 83 91 89 92 74 73 77 71 70
11 13 13 6 4 4 6 11 22 35 46 56 64 70 81 82 78 78 82 74 28 46 74 81 83 87 92 85 68 58 66 62 59 68 95 97 78 89 93 90 76 79 80 81
11 14 15 10 5 5 6 10 16 33 46 56 58 68 79 78 82 69 74 82 80 69 72 74 72 56 48 36 40 71 68 75 89 57 51 97 84 75 76 82 93 98 90 95
12 15 17 14 6 5 6 13 19 29 44 59 66 72 76 75 77 72 82 80 82 78 82 91 88 68 52 52 63 72 75 79 83 65 40 85 70 100 98 96 96 98 93 91
12 16 19 15 9 6 8 19 24 36 46 60 66 70 72 72 73 79 85 88 86 86 86 94 87 73 92 93 90 86 81 84 94 93 78 92 76 86 86 86 91 96 96 94
18 21 22 19 13 8 17 23 22 33 50 54 57 61 60 67 71 77 95 96 96 99 99 97 95 80 91 91 89 86 78 74 84 90 91 100 99 95 97 98 95 97 97 98
27 26 26 25 14 14 25 26 23 32 45 45 50 52 56 57 68 86 98 98 100 97 100 98 95 75 89 91 88 83 71 95 100 94 98 97 94 94 91 93 97 99 97 96
38 35 32 22 17 24 30 31 26 31 36 40 47 51 55 60 76 80 93 99 100 100 98 96 81 80 88 90 88 83 81 98 100 100 100 100 98 98 97 97 96 96 96 96
30 40 28 20 18 23 37 23 20 30 36 45 51 55 55 56 65 80 92 99 96 97 98 88 80 83 92 95 96 90 78 76 92 100 99 97 96 96 95 95 96 97 96 96
21 37 29 21 22 33 31 20 20 29 34 46 54 54 54 55 68 84 97 99 96 97 91 86 95 95 96 96 96 87 85 82 84 93 96 94 90 93 96 96 96 96 96 96
26 18 33 31 24 31 29 27 26 35 41 49 57 63 61 65 80 100 88 98 89 89 94 96 96 96 96 96 95 96 94 89 88 91 92 92 93 92 94 98 97 96 95 86
31 28 28 43 39 37 36 35 37 44 53 60 65 68 65 62 87 87 83 68 68 85 93 91 92 89 93 95 97 93 94 92 89 85 92 94 94 96 96 96 96 96 82 46

GFSNW_700_rhum_069.txt.gz
RH
2 3 4 6 6 9 16 20 31 33 38 41 52 64 74 80 82 80 82 89 91 96 89 85 78 77 82 80 74 70 67 72 94 94 96 97 96 84 76 80 84 83 80 61
2 4 5 6 7 10 14 18 24 33 38 41 53 70 72 72 74 81 87 85 80 86 86 84 84 82 80 82 81 75 71 87 98 97 99 98 94 81 82 82 89 89 85 67
3 4 5 7 8 9 16 21 26 30 36 41 48 73 76 75 76 71 82 85 86 84 80 86 87 89 86 88 87 90 84 75 70 69 73 70 73 61 69 83 94 88 87 73
3 4 4 5 5 9 17 19 24 30 30 40 49 61 77 83 86 81 73 72 85 89 87 87 84 87 88 98 97 98 94 87 79 79 78 76 76 72 74 93 95 97 82 64
3 3 4 4 4 4 8 10 22 27 35 39 44 57 74 90 92 88 86 77 79 83 90 86 77 78 81 92 93 98 98 93 83 77 75 78 80 76 74 80 91 100 91 66
3 3 4 4 4 4 5 8 13 25 31 39 42 50 64 81 92 95 91 87 84 84 93 88 80 77 76 85 91 91 97 96 88 82 75 72 65 49 51 57 58 64 78 41
3 4 4 4 4 3 6 11 16 22 26 35 41 48 58 62 78 99 100 98 92 92 91 91 84 82 84 83 87 91 88 94 96 84 82 86 53 54 50 48 46 54 52 39
3 4 4 4 3 3 8 14 22 26 28 31 39 46 56 62 74 99 97 97 90 94 95 95 94 88 87 87 86 82 82 84 82 81 84 66 48 50 60 58 54 58 53 69
3 3 4 4 2 3 7 12 21 28 30 32 36 45 51 57 62 81 96 91 98 96 95 96 96 84 84 83 85 81 82 88 90 91 90 88 60 79 77 76 76 82 77 83
3 3 4 3 2 3 6 10 20 26 30 35 38 41 51 56 59 69 61 93 96 97 95 98 94 88 82 78 81 80 94 99 97 95 87 70 63 64 63 66 72 78 75 81
3 3 4 3 3 3 5 10 18 26 31 36 43 47 49 53 57 59 71 64 85 100 99 99 92 84 80 84 81 81 80 85 88 96 96 86 64 71 69 74 75 76 83 87
3 3 4 4 3 4 4 7 16 28 32 40 47 52 54 53 57 61 72 81 88 88 96 96 94 84 85 84 88 86 84 77 75 71 65 62 63 70 75 78 77 79 75 79
4 3 4 4 4 4 3 5 15 27 34 46 44 50 58 57 54 56 59 72 82 95 90 97 99 89 88 89 83 81 83 83 85 79 65 70 76 79 81 89 74 78 80 82
5 4 4 4 4 4 4 5 13 26 36 46 51 48 43 43 58 58 57 62 70 72 86 96 98 100 95 98 91 87 78 75 77 79 79 81 79 83 85 88 90 87 77 73
8 5 4 4 4 4 4 6 11 24 32 42 47 55 54 55 53 42 58 65 62 66 72 73 86 95 97 100 99 72 68 72 79 73 85 82 75 87 91 89 87 85 83 75
10 8 8 9 4 4 3 5 10 20 34 41 46 55 61 63 61 62 63 39 46 77 74 77 79 74 79 80 80 67 74 77 71 65 68 68 63 68 79 82 97 95 78 76
9 11 16 10 4 4 4 5 8 16 29 38 45 49 58 59 65 64 65 67 69 43 37 68 77 81 85 82 76 74 76 73 68 78 71 65 62 84 88 78 95 94 91 78
10 13 14 11 4 4 4 4 6 11 24 33 44 52 59 63 65 61 60 65 72 73 69 74 80 68 51 40 44 79 76 65 70 72 81 63 26 65 98 92 78 85 82 84
10 16 13 15 9 4 5 5 6 9 16 24 34 44 57 56 59 58 60 62 75 73 76 83 82 78 54 50 55 88 91 86 75 75 84 62 53 69 80 70 98 98 99 98
12 16 15 16 14 7 5 8 7 9 14 19 24 29 45 47 48 60 74 83 82 81 82 86 85 72 80 95 92 84 82 74 66 68 78 75 88 88 94 98 98 94 88 92
17 12 23 25 17 12 6 12 10 11 18 19 19 26 30 38 41 58 88 89 97 99 98 95 91 72 78 92 93 90 81 70 82 92 83 88 95 95 98 100 100 99 98 97
13 27 42 35 22 15 10 17 13 13 17 14 18 23 29 34 45 62 98 98 100 98 96 97 98 73 78 82 90 91 90 82 92 99 96 97 100 99 100 99 98 96 94 97
36 47 39 34 26 17 14 19 13 11 12 14 18 25 26 37 48 77 100 100 100 99 100 100 87 87 88 92 94 94 95 87 86 97 100 100 98 96 95 95 96 98 100 98
52 61 62 38 21 17 23 21 11 11 12 15 20 22 30 37 49 77 100 100 99 98 99 88 86 90 96 99 98 96 96 94 90 94 98 99 97 93 95 96 97 95 95 96
34 30 30 30 24 19 29 18 15 15 14 21 22 26 31 42 57 73 99 98 96 91 81 76 87 89 90 95 97 96 95 95 95 89 89 93 95 94 94 94 94 97 96 96
41 40 28 31 27 23 30 24 25 22 20 25 29 32 44 51 58 90 76 91 76 66 78 84 88 85 87 91 88 75 82 87 88 86 89 90 94 98 98 97 97 95 99 96
52 44 24 23 28 40 39 37 33 28 30 40 40 39 54 53 68 66 67 48 55 64 70 84 90 79 66 62 59 61 65 72 76 89 93 92 92 95 96 96 94 95 96 96

GFSNW_700_rhum_072.txt.gz
RH
3 2 4 4 5 6 9 12 19 24 32 42 45 65 72 77 82 80 85 96 84 93 91 91 84 94 94 96 81 69 68 88 99 98 88 78 81 92 83 71 77 77 69 46
3 2 4 4 5 6 8 11 16 22 32 41 50 64 70 72 73 76 88 91 81 85 87 88 81 79 84 89 79 76 68 80 96 98 96 89 95 92 85 88 75 90 66 50
3 3 4 4 5 6 8 13 16 20 30 39 48 72 72 73 75 74 81 86 81 80 81 82 85 83 79 83 91 82 76 74 74 66 67 78 90 82 83 88 91 74 71 61
3 3 4 3 4 4 5 8 14 17 25 37 47 64 77 80 79 75 69 81 87 82 79 80 82 86 86 90 86 88 87 84 78 72 69 72 71 67 63 69 55 81 68 70
3 4 3 3 3 3 4 5 8 13 23 38 43 54 66 82 85 82 80 74 79 92 91 88 85 79 86 88 95 92 87 88 85 80 76 75 71 71 70 69 68 81 69 66
3 4 3 3 3 2 3 7 11 13 20 33 42 47 60 78 93 90 86 87 80 86 91 89 84 76 75 88 97 92 92 92 84 91 77 74 68 50 52 52 51 59 94 38
3 3 4 4 2 2 4 7 11 15 20 29 38 46 50 65 86 96 97 95 88 86 89 93 85 84 83 87 95 98 94 96 97 93 83 82 60 53 52 52 51 52 45 38
3 3 4 3 2 3 4 6 11 18 24 29 34 41 48 54 64 84 100 89 86 92 96 90 90 90 94 91 87 86 88 91 86 87 82 67 52 54 62 61 64 59 54 54
3 3 4 3 2 3 4 5 10 17 25 30 34 38 43 48 56 73 94 95 94 85 99 96 95 80 84 87 86 88 89 89 87 85 83 66 61 68 65 57 71 78 78 77
3 3 4 2 3 3 4 4 10 15 26 33 37 38 40 46 52 58 65 83 88 97 88 98 96 86 78 80 89 83 98 98 98 89 84 73 62 62 64 69 71 72 69 67
3 3 4 2 3 3 3 4 10 17 23 34 41 45 46 46 47 53 58 63 85 90 89 95 95 82 76 78 77 78 91 92 98 100 95 79 66 69 71 76 76 75 78 80
3 3 4 3 3 3 2 4 10 18 20 26 39 46 46 45 48 52 61 64 68 81 86 83 88 90 80 78 84 79 85 83 87 78 81 61 64 71 74 81 76 73 73 78
4 4 4 4 4 3 3 3 8 18 24 25 28 32 42 49 48 47 56 66 77 80 82 93 95 91 84 92 82 79 78 79 84 75 66 69 73 79 84 85 79 79 75 75
4 4 4 4 4 3 3 3 6 22 19 30 38 38 38 38 45 51 51 56 65 72 78 81 91 92 87 89 83 84 81 78 83 80 73 70 68 73 74 74 80 94 90 85
5 5 4 4 5 3 3 3 7 12 16 25 36 46 48 47 50 48 41 48 58 62 67 69 84 90 94 88 89 69 75 84 92 93 78 67 61 65 76 89 88 95 91 86
7 6 5 4 5 4 3 6 6 11 18 25 29 44 43 50 52 54 53 54 41 38 66 68 69 71 74 80 81 73 78 79 80 81 81 79 68 61 62 56 78 95 98 99
9 9 8 5 6 4 3 6 5 8 13 25 33 37 46 50 52 54 54 53 56 56 45 41 60 72 81 82 77 72 74 76 75 74 66 61 73 77 66 46 57 61 65 88
10 12 10 8 10 5 4 4 4 7 10 16 20 28 38 37 44 47 50 52 57 62 63 67 75 80 69 47 38 59 61 81 89 92 87 79 80 69 31 39 94 98 94 84
12 13 12 10 13 4 5 4 5 6 14 10 12 23 33 21 21 30 34 46 58 62 70 77 80 77 69 43 49 87 91 86 78 72 70 72 88 66 64 52 75 66 84 97
12 13 14 13 12 6 5 8 8 9 8 11 9 12 18 17 16 25 32 46 61 66 77 78 79 70 79 74 96 95 88 82 77 66 84 88 94 82 90 88 90 98 92 87
12 13 15 17 16 15 9 8 10 9 11 8 8 8 10 14 15 21 29 47 64 86 96 91 88 69 74 84 87 96 87 85 84 78 80 88 83 93 96 99 100 99 99 91
10 14 18 24 31 24 13 9 11 8 10 7 8 9 8 12 12 23 57 72 81 98 94 97 97 63 71 78 86 94 97 99 93 86 75 87 96 94 97 95 91 89 98 96
12 19 38 40 47 37 17 13 11 10 8 8 8 10 8 13 15 26 55 97 94 92 98 92 56 63 74 84 93 91 92 99 99 92 85 77 90 93 96 95 94 92 95 97
21 45 50 53 54 35 23 12 10 9 7 6 7 8 11 12 18 31 77 86 98 95 100 52 54 77 83 74 78 99 98 97 94 91 93 92 90 92 93 94 95 93 95 96
52 52 59 70 60 27 19 20 12 8 7 8 10 11 11 15 26 40 78 90 100 88 56 56 72 81 82 71 91 92 91 72 65 71 78 81 88 95 95 94 95 97 97 99
48 51 55 54 53 40 23 21 15 16 14 13 13 14 15 18 32 50 52 88 57 42 49 61 72 76 77 75 66 58 58 58 63 73 74 83 91 94 96 95 95 96 96 96
60 58 62 57 43 32 28 27 24 27 28 23 20 17 21 30 36 40 42 36 36 32 45 56 62 64 60 51 50 40 35 42 54 64 66 70 89 98 100 100 96 94 95 95

GFSNW_700_rhum_075.txt.gz
RH
90 23 3 3 4 6 7 8 15 16 24 36 38 52 64 75 80 77 83 90 99 95 96 88 90 98 99 93 92 94 87 98 99 95 96 89 86 82 67 65 61 57 64 44
96 22 3 3 4 5 7 9 12 16 24 35 49 54 67 79 79 77 89 87 82 91 95 88 94 92 89 94 91 91 74 95 97 92 96 86 84 87 84 69 75 84 56 40
83 10 3 3 4 4 5 7 11 15 23 34 49 74 82 74 70 76 85 88 80 86 88 84 88 83 79 93 92 80 74 85 85 68 75 73 89 83 84 89 95 69 64 54
76 6 3 4 4 3 4 4 8 12 16 29 40 48 85 98 75 69 80 87 85 84 83 86 94 90 80 85 86 84 82 81 73 66 64 64 76 94 92 96 89 82 65 61
54 5 5 4 3 3 4 4 6 11 14 24 38 46 65 100 83 75 74 85 79 83 86 91 90 96 96 96 84 88 89 85 80 78 73 74 74 77 91 91 92 92 82 75
21 4 4 4 3 3 3 5 8 12 17 24 39 70 88 77 79 84 79 73 84 98 88 86 81 79 77 92 99 96 93 87 84 85 78 74 72 57 58 66 61 82 82 64
20 4 4 4 3 2 3 4 8 13 17 24 35 37 46 72 88 86 85 81 92 78 85 90 88 81 77 82 90 98 98 94 94 94 79 80 62 57 50 58 66 60 60 41
32 5 4 3 4 2 3 4 8 15 19 23 27 38 46 64 80 96 85 90 82 82 87 94 85 92 90 84 79 85 93 99 98 92 74 63 61 45 47 50 52 53 48 46
11 6 6 6 5 3 3 4 9 14 20 23 30 35 43 57 65 77 89 88 82 82 90 97 83 73 71 88 91 82 80 88 95 88 77 59 64 54 57 57 56 62 62 73
14 7 5 4 6 3 3 4 8 15 21 26 33 36 40 44 52 73 67 90 87 82 82 93 92 78 78 72 77 97 100 98 92 88 89 70 67 65 61 66 73 74 68 66
14 6 4 4 7 3 3 6 9 15 19 27 35 39 40 42 46 54 48 71 82 92 100 100 96 83 82 78 74 86 86 89 90 90 98 78 71 71 70 92 77 70 67 68
10 5 4 3 4 2 4 6 9 11 17 25 36 39 40 43 45 46 50 51 56 71 83 84 90 88 84 77 73 75 80 80 87 77 81 79 62 76 76 74 74 71 66 66
10 4 4 4 6 5 4 7 10 16 13 22 30 37 39 42 43 45 49 54 65 64 73 80 82 87 79 81 78 84 75 75 83 82 73 66 66 68 70 74 77 78 74 70
6 4 4 5 5 4 5 9 11 13 12 18 28 30 32 31 36 44 47 54 62 73 75 75 84 87 77 94 85 79 87 75 81 82 73 75 74 76 76 80 75 73 76 87
6 5 4 4 4 12 4 11 15 18 16 16 30 36 40 40 40 36 34 41 52 59 66 69 77 79 86 86 83 76 74 77 96 89 89 81 80 82 72 66 66 70 89 92
7 5 4 5 4 15 4 9 13 18 20 18 20 33 42 44 45 48 48 47 40 36 48 59 62 64 72 77 99 86 72 69 72 77 73 72 71 73 73 73 61 54 58 75
8 6 4 5 5 10 4 9 9 16 21 18 19 23 40 41 43 44 48 45 46 52 50 42 47 58 71 72 73 77 68 72 70 62 60 63 70 69 66 63 60 52 38 45
14 6 5 6 7 8 5 4 7 15 22 18 15 16 24 30 30 40 42 42 46 48 54 57 62 67 75 62 36 59 44 72 85 92 81 77 72 70 75 80 52 52 75 100
9 7 5 6 8 8 9 6 9 13 19 10 11 14 15 14 15 20 30 38 51 49 52 58 62 61 64 58 46 48 82 88 85 86 79 73 74 75 85 74 70 64 77 72
10 10 7 8 11 15 16 12 16 15 18 9 8 8 7 10 10 13 30 32 47 48 49 51 51 47 54 60 65 80 94 91 85 79 80 82 88 95 100 92 90 95 98 98
14 12 10 10 11 13 9 13 16 15 13 8 6 8 8 9 10 13 15 26 40 62 51 46 48 34 49 59 64 70 83 87 89 90 93 88 84 92 100 100 100 100 100 99
14 13 12 11 14 14 18 12 13 12 11 8 9 6 8 11 10 13 22 29 41 80 44 53 37 38 50 59 66 75 80 77 82 88 91 93 88 88 96 98 98 97 94 94
13 14 18 16 22 28 34 24 14 10 7 8 7 9 10 12 12 14 25 39 65 43 62 44 25 40 53 67 66 64 57 76 84 87 87 85 89 94 96 96 96 95 97 95
15 18 24 29 38 40 38 37 20 9 8 8 9 10 10 10 12 17 31 51 56 89 95 27 27 44 53 65 67 54 75 82 79 73 71 70 77 82 90 95 96 96 95 95
22 31 42 41 47 46 46 42 21 11 9 8 8 10 10 12 14 19 30 44 72 82 40 35 36 39 54 58 57 63 61 57 56 56 56 59 65 79 92 93 89 94 96 95
42 29 39 48 46 47 50 42 17 10 8 8 10 10 9 12 16 22 27 49 29 29 32 28 28 28 34 42 46 51 50 45 41 33 36 46 57 70 90 97 100 97 93 95
40 38 40 48 53 60 68 63 17 13 13 14 15 14 12 19 23 26 22 16 18 19 19 22 24 25 32 44 48 52 50 38 30 33 46 54 57 65 67 84 96 98 99 97

GFSNW_700_rhum_081.txt.gz
RH
99 100 100 88 99 100 86 11 19 22 22 24 34 34 52 72 79 82 84 79 80 76 80 92 95 78 86 77 87 94 84 81 99 92 89 83 86 71 78 67 65 62 60 49
99 99 100 94 100 100 41 15 20 25 19 20 32 42 55 81 83 81 81 83 93 83 90 86 89 87 86 81 82 82 77 84 93 100 93 77 82 77 73 67 70 66 68 46
98 100 100 100 100 99 12 18 17 20 20 24 33 48 59 77 79 78 80 83 87 96 92 92 87 80 82 90 84 74 70 81 82 72 71 70 75 68 74 80 77 68 64 54
99 100 100 99 100 86 9 15 12 10 14 20 34 64 76 65 75 73 77 79 87 96 91 89 88 85 84 90 90 81 77 81 82 85 78 75 76 65 68 74 70 71 46 51
99 99 99 100 97 52 11 14 11 12 14 18 47 76 86 70 70 65 74 75 89 89 89 88 89 86 82 90 93 96 89 85 80 75 70 68 65 64 63 70 80 82 74 65
99 99 99 100 98 27 10 9 9 10 15 20 32 40 70 91 74 68 63 83 88 86 88 88 95 91 84 86 86 89 92 93 88 82 87 83 76 56 54 52 56 63 77 48
99 99 99 86 57 21 13 15 11 12 15 20 27 45 63 89 84 67 64 69 75 79 83 87 87 86 90 91 89 93 92 94 93 93 91 94 61 63 60 57 60 64 66 70
99 99 98 100 46 15 12 12 10 15 19 25 34 65 66 76 69 67 66 66 75 80 82 92 88 88 83 79 77 94 90 90 96 97 90 73 64 65 64 54 61 64 70 82
99 99 91 100 18 17 11 10 13 17 22 26 42 44 55 51 52 58 72 73 77 81 86 88 84 84 78 93 87 85 83 94 94 99 95 85 65 62 58 52 59 66 71 66
99 99 98 79 17 10 9 11 14 19 24 28 31 33 37 39 53 59 66 74 80 82 84 88 84 82 82 82 80 81 93 97 95 94 93 75 69 72 70 65 79 85 81 73
99 98 79 30 15 11 10 12 14 22 27 30 32 32 35 36 38 40 49 70 68 80 81 97 88 89 84 75 77 77 73 76 82 92 94 84 78 81 78 76 78 90 84 80
98 99 57 24 28 16 9 14 20 26 28 29 35 36 41 42 41 42 38 48 52 63 72 79 83 86 86 74 72 79 79 75 76 78 85 89 89 86 77 84 98 94 84 76
99 66 39 28 46 31 12 19 25 26 30 32 35 36 38 37 38 40 42 46 52 57 57 69 86 86 81 77 74 78 78 76 84 87 95 87 73 77 81 70 74 75 73 74
99 69 77 67 52 26 19 24 27 28 31 30 34 37 36 36 37 39 40 47 48 54 55 75 73 71 70 77 69 70 75 73 70 71 84 83 79 77 76 74 75 74 75 76
95 86 89 64 66 23 26 27 32 32 28 24 31 34 34 36 38 41 43 46 53 50 50 55 66 65 70 70 68 66 71 72 71 66 67 68 67 80 87 90 88 84 78 72
72 89 68 49 28 27 27 29 32 26 22 21 20 26 26 26 29 31 33 36 41 45 50 53 54 55 61 57 56 51 47 58 67 72 74 74 71 74 80 75 64 58 58 62
53 54 80 26 27 31 21 25 25 24 24 19 20 26 30 30 31 32 32 32 34 37 39 42 42 43 49 50 44 46 42 40 43 46 56 61 63 66 72 71 64 60 60 62
51 23 21 48 42 31 28 25 24 23 25 17 16 21 30 32 32 34 35 36 35 36 40 39 42 45 46 44 41 40 42 46 44 64 73 74 69 63 61 64 61 60 65 73
52 41 48 42 36 39 33 22 26 26 23 15 9 9 22 20 23 29 25 30 33 36 38 41 41 39 32 36 45 51 48 53 67 69 66 66 65 61 64 70 74 68 76 81
63 50 37 46 38 49 41 24 29 30 24 14 8 8 10 11 12 14 18 18 26 24 28 29 25 10 18 34 43 52 57 62 66 70 69 64 63 65 74 74 77 83 85 89
60 41 50 38 26 40 38 27 37 30 22 16 10 9 9 11 10 10 12 16 13 14 25 27 12 10 16 27 42 49 57 61 68 68 58 57 66 72 73 71 73 75 78 84
48 41 29 28 32 38 31 31 30 17 13 8 9 8 9 10 10 9 10 9 12 33 28 23 8 12 14 18 33 47 56 52 44 44 59 69 73 70 68 64 61 61 67 77
38 35 24 23 24 30 34 28 31 16 8 7 5 11 11 13 10 11 9 9 23 23 28 15 11 16 13 16 20 26 30 34 38 44 48 51 50 47 46 46 47 48 52 66
34 32 24 17 16 22 26 32 36 36 13 11 8 12 13 12 13 12 10 24 28 28 26 15 15 16 17 20 18 20 21 25 29 36 39 39 37 33 28 24 26 31 44 59
39 30 17 16 20 16 23 34 55 60 62 54 20 17 17 15 12 13 12 20 26 18 12 13 18 18 19 17 16 18 18 19 20 28 35 39 35 21 22 28 32 34 40 54
37 22 21 19 21 23 22 29 38 38 45 45 25 21 20 16 12 10 9 14 10 10 12 13 15 20 15 14 17 18 16 17 19 24 33 39 26 22 37 41 46 47 53 63
33 30 31 22 20 28 30 34 40 42 50 46 23 14 12 12 11 10 8 8 9 10 12 15 24 23 19 18 20 17 14 16 21 27 36 36 22 32 38 29 45 54 63 70

GFSNW_700_rhum_084.txt.gz
RH
97 90 89 98 99 100 99 99 87 75 18 33 44 36 40 54 83 84 86 88 79 72 84 94 95 85 89 80 93 86 75 71 90 85 82 82 76 74 67 59 66 64 66 51
99 97 98 99 100 99 99 87 80 39 26 34 31 40 50 62 85 83 85 80 80 78 85 94 99 91 94 88 87 76 70 79 92 94 88 76 79 72 71 59 73 67 62 49
99 96 97 100 99 99 100 71 77 28 32 30 34 50 59 73 88 80 74 76 89 81 87 90 86 92 94 94 90 88 85 79 72 71 70 71 75 66 68 71 80 70 60 52
77 95 97 98 99 100 96 98 30 13 22 24 36 55 61 72 86 79 83 79 88 90 92 94 85 81 87 93 93 90 85 80 85 85 84 79 75 68 71 72 62 77 59 59
95 97 99 99 99 99 97 94 21 12 16 30 46 64 54 68 72 67 73 76 91 95 91 89 77 81 80 86 87 83 74 77 80 78 75 69 64 63 62 68 74 76 76 76
97 97 99 99 99 99 99 61 14 17 19 23 39 41 56 70 62 67 70 79 81 89 87 89 86 82 78 84 83 82 84 81 81 82 77 74 71 57 58 56 57 57 66 58
91 97 98 98 99 99 90 46 20 13 19 26 32 56 70 77 67 55 73 80 78 81 87 92 95 99 92 90 79 83 87 85 84 87 89 92 67 65 64 62 64 67 65 70
88 96 98 98 99 98 89 30 23 19 18 25 48 55 71 87 84 86 65 74 72 76 86 93 94 94 90 87 95 91 87 91 88 93 91 71 58 65 66 61 58 60 66 69
92 98 99 99 99 97 29 30 27 22 22 30 41 58 59 70 81 88 82 82 77 77 80 89 86 88 83 87 85 91 96 91 98 98 96 87 66 62 62 59 57 58 57 62
98 98 98 98 99 75 28 22 19 21 27 35 45 64 73 76 69 78 71 79 83 81 73 88 82 82 78 81 85 95 100 97 95 98 87 75 69 70 68 67 56 54 67 76
99 98 98 98 99 46 24 21 18 24 31 39 45 53 61 53 52 48 57 79 82 84 79 87 78 86 84 80 77 76 74 88 93 99 92 84 66 75 76 67 63 67 79 81
98 98 99 99 68 30 18 18 20 29 38 38 42 49 52 52 50 56 53 55 58 63 64 68 76 88 87 78 78 80 77 67 69 71 74 71 67 69 72 70 68 72 82 82
97 97 98 92 54 22 17 21 27 33 37 39 44 44 54 52 56 53 49 48 52 48 45 57 77 76 78 80 75 74 78 76 80 81 82 74 83 84 78 73 76 80 80 74
97 99 98 50 30 21 23 26 29 33 38 42 44 43 48 46 45 43 43 49 48 51 56 64 68 70 69 78 70 70 75 75 79 79 76 75 76 72 77 84 86 85 87 86
98 98 78 41 55 28 25 30 32 37 39 36 38 40 40 40 40 42 42 45 46 49 51 65 70 65 67 60 63 64 66 70 77 72 72 75 79 79 80 87 91 93 91 86
98 70 47 93 87 29 27 32 34 36 34 37 38 37 39 39 40 41 42 44 47 47 46 51 50 55 60 56 49 41 50 58 64 72 74 80 84 83 84 81 71 64 63 65
95 78 78 86 90 42 31 29 32 32 40 32 27 32 32 33 33 33 33 35 36 39 41 45 40 42 50 47 38 36 40 36 34 38 44 51 58 65 72 74 70 66 65 63
96 95 86 88 66 36 31 27 30 33 33 26 22 25 27 26 25 26 28 29 31 29 32 31 33 36 39 34 32 36 36 36 41 45 58 70 74 69 64 62 62 65 68 70
96 95 95 49 32 33 30 32 32 35 31 22 14 16 26 22 25 30 28 31 30 29 29 31 31 32 26 26 32 40 40 43 48 55 58 58 58 56 54 53 55 64 72 76
96 96 96 49 41 37 30 36 40 37 33 20 11 13 16 16 17 21 22 20 25 23 23 23 24 13 12 21 28 36 42 45 44 47 55 61 58 53 52 62 66 67 65 65
81 92 67 72 68 40 40 33 44 40 32 21 13 14 13 16 18 16 12 13 14 11 17 22 15 6 6 10 19 31 40 39 43 41 40 39 40 46 60 66 66 65 62 60
76 47 80 88 64 56 50 41 35 28 22 13 15 10 10 12 13 10 10 8 10 16 17 16 9 8 9 10 11 18 23 23 22 20 21 24 31 36 41 42 46 45 44 44
75 63 92 91 66 62 78 41 32 22 12 9 7 12 11 14 11 10 8 6 10 14 16 12 9 10 11 11 10 12 13 13 12 14 16 23 27 30 30 31 29 24 22 23
93 61 57 50 40 39 44 46 35 32 30 14 8 11 13 12 14 9 6 13 17 16 14 9 10 11 12 12 14 12 12 12 12 12 12 17 20 26 28 21 18 23 30 29
63 38 43 37 20 20 32 38 34 38 44 36 18 18 18 16 13 10 9 13 16 13 9 9 10 12 16 17 14 11 11 12 13 11 12 16 19 24 24 18 24 28 32 44
44 35 32 33 22 19 27 36 38 45 50 53 38 24 22 18 11 10 9 13 8 8 9 9 10 14 19 21 15 14 14 14 14 12 12 17 20 24 23 19 30 25 33 46
65 42 36 27 22 19 18 32 48 63 57 49 38 21 16 16 14 11 8 8 8 8 8 12 15 19 29 24 20 20 18 19 18 13 13 21 24 25 28 22 34 21 30 53

GFSNW_700_rhum_087.txt.gz
RH
92 95 95 96 98 48 98 98 98 98 99 90 63 26 16 50 82 85 83 93 83 71 83 87 82 84 84 92 97 92 84 86 96 93 82 80 83 79 68 57 69 64 62 54
90 95 97 98 87 93 98 98 98 98 99 82 46 16 22 52 88 88 89 93 79 76 78 88 94 87 87 87 89 79 70 67 89 92 92 84 82 72 72 66 63 64 63 54
93 95 97 100 96 98 98 98 98 98 99 77 26 18 34 65 91 90 91 81 85 78 89 94 90 84 88 82 87 84 79 74 68 66 67 73 78 71 72 73 67 61 53 49
96 98 99 69 93 98 99 98 98 86 84 73 20 22 56 99 96 95 90 80 84 78 94 97 94 88 82 86 86 86 78 71 76 73 80 76 73 69 66 67 69 71 59 53
97 98 91 83 97 98 99 100 98 91 62 20 25 30 53 65 93 89 85 76 83 80 85 82 81 82 88 96 89 90 85 83 84 81 79 76 69 70 70 69 72 71 68 66
92 83 91 98 98 95 98 98 99 60 33 13 26 28 48 62 80 78 76 79 84 92 79 84 84 87 87 88 92 90 87 80 79 80 77 75 69 59 59 58 56 56 60 52
97 95 88 96 98 99 99 99 99 27 16 18 19 40 60 66 75 62 73 88 88 87 86 87 85 87 88 92 85 86 89 85 80 80 81 88 64 62 65 63 62 59 57 57
90 96 95 98 99 99 98 98 44 24 14 25 48 75 79 80 79 73 74 85 90 88 87 88 92 96 92 93 90 84 88 87 84 92 91 72 58 66 66 63 58 54 53 63
93 95 98 96 97 98 99 53 36 24 17 34 55 83 85 81 86 82 80 86 88 88 88 84 79 84 81 81 85 91 91 93 92 99 98 84 66 63 57 56 58 50 44 47
97 98 97 99 98 99 94 42 27 24 20 35 62 60 87 94 90 86 82 83 84 87 89 86 81 76 78 76 86 97 99 93 93 92 89 71 63 68 67 66 54 54 58 68
95 99 98 99 99 97 57 26 24 23 27 38 52 54 72 75 88 84 78 90 90 92 87 83 72 76 74 81 79 76 90 94 92 87 94 80 63 67 68 64 63 61 58 67
97 89 98 99 92 68 24 26 19 25 33 39 50 59 81 80 77 77 68 63 69 77 73 66 70 78 83 79 77 80 81 74 73 69 69 67 68 69 69 72 71 68 62 69
97 96 98 98 70 36 22 23 23 30 38 40 52 66 63 77 70 65 70 62 57 63 55 59 67 73 77 78 71 72 75 72 74 70 68 66 69 73 78 82 75 74 78 78
96 95 98 86 37 23 19 23 30 36 38 45 50 54 56 54 61 64 58 66 54 62 58 55 58 60 62 79 70 67 67 67 67 67 71 69 63 64 70 73 76 79 80 84
99 97 98 63 24 21 20 28 34 38 41 40 46 46 56 54 55 49 46 50 48 52 51 53 54 55 58 56 62 62 59 57 58 60 62 64 66 68 71 76 79 76 76 77
98 98 86 28 24 40 41 34 36 40 38 41 46 43 50 49 45 42 44 45 43 45 44 47 54 53 55 49 46 36 42 49 51 56 61 60 59 59 62 63 65 65 64 66
80 96 91 51 30 26 27 32 36 37 40 41 38 42 42 40 41 42 43 43 44 43 43 45 42 43 47 45 30 26 28 30 33 38 40 39 40 46 55 62 64 59 56 56
100 95 89 75 72 42 30 33 34 38 37 30 30 34 41 41 41 43 42 40 37 35 35 32 34 34 32 26 16 21 25 31 31 33 38 44 53 54 54 55 53 50 48 52
100 83 85 92 79 56 32 34 33 35 37 29 26 24 30 31 31 32 30 30 30 29 27 28 27 26 22 14 15 18 24 30 35 40 40 41 45 48 49 49 47 46 51 58
100 99 94 87 52 39 31 34 33 36 32 24 16 19 20 21 24 26 27 25 26 24 23 22 23 10 9 8 11 12 20 25 28 32 36 36 36 33 31 29 36 45 52 56
100 98 96 64 52 35 35 35 39 37 33 25 18 18 22 23 24 24 20 14 16 13 16 19 14 7 6 5 6 12 20 24 25 26 24 19 19 20 22 26 29 31 32 31
100 98 93 59 42 41 43 38 34 32 28 21 18 15 18 19 24 19 13 11 10 11 13 14 9 7 8 7 9 14 15 16 15 14 13 14 14 16 19 21 23 25 25 22
98 97 95 73 74 63 63 50 35 24 18 13 10 12 16 20 17 9 9 6 9 11 13 11 8 8 9 11 11 10 9 10 10 10 10 9 10 10 13 18 22 21 16 13
97 96 94 76 70 62 70 59 26 17 12 10 8 14 12 12 13 10 7 9 12 12 11 8 8 9 10 11 12 10 10 9 9 10 10 10 9 11 14 17 21 18 14 17
96 87 81 84 66 55 53 60 42 29 33 29 11 16 14 14 13 10 7 9 11 10 9 8 9 9 9 11 14 13 11 10 11 13 13 13 12 10 13 19 20 18 16 20
92 73 59 65 51 33 30 52 70 47 42 40 21 22 19 15 12 9 7 11 8 8 8 9 8 7 11 13 14 16 15 15 17 18 19 19 13 11 14 21 23 22 20 22
92 71 44 43 33 20 31 47 61 56 45 47 44 32 18 17 14 10 8 8 7 8 8 8 9 15 18 19 21 20 19 21 22 23 24 18 12 12 18 22 27 26 26 25

GFSNW_700_rhum_090.txt.gz
RH
65 68 77 87 90 96 96 99 98 96 97 96 95 99 84 51 59 70 72 83 92 82 79 85 97 85 87 96 95 89 84 82 95 100 95 85 78 72 64 55 69 63 60 56
49 64 86 96 95 97 100 94 99 97 98 96 92 98 75 58 68 72 72 87 90 78 78 82 92 88 87 96 94 90 75 79 95 84 80 75 77 75 71 64 59 61 63 57
26 57 95 98 97 95 98 94 99 98 98 95 94 97 55 71 74 72 76 91 87 82 82 89 85 83 93 98 98 92 81 73 69 74 68 75 74 72 68 68 61 53 50 53
50 92 97 98 67 65 87 98 94 86 96 98 96 76 68 77 75 74 90 91 89 82 92 90 90 87 85 78 86 81 79 75 73 79 81 79 73 69 70 69 69 66 56 54
94 98 95 98 66 36 80 88 94 80 97 92 97 61 80 79 74 63 89 82 82 92 80 75 72 75 80 80 86 79 84 82 89 87 84 78 73 74 69 67 67 66 67 58
98 98 96 97 76 68 92 86 94 91 94 76 86 66 89 92 72 74 78 77 77 93 92 88 83 80 82 79 78 78 84 77 79 75 75 70 62 61 62 60 57 55 56 50
97 96 91 96 69 84 91 95 95 98 81 81 38 54 76 63 69 64 76 86 94 95 89 93 86 86 94 92 90 91 88 90 84 72 72 78 63 64 62 59 59 57 53 51
94 100 98 74 66 54 95 97 100 79 38 32 48 51 68 60 80 78 71 87 94 96 93 92 95 100 98 96 88 92 95 90 81 89 83 65 59 62 66 64 59 58 55 55
95 98 99 73 80 83 97 97 97 40 34 36 42 47 53 63 75 74 82 93 96 97 96 86 78 83 82 86 90 94 94 98 89 98 93 78 67 66 66 58 57 57 55 52
96 98 89 92 98 88 100 98 70 38 33 28 45 47 61 75 74 72 86 94 96 93 91 86 73 68 74 69 79 95 99 89 90 80 80 73 68 68 65 63 63 60 60 63
90 95 94 86 83 81 94 96 41 32 21 31 44 58 72 74 70 65 79 94 96 93 95 88 72 66 68 76 76 76 89 85 84 83 80 76 56 59 73 67 65 66 63 61
97 82 93 86 87 98 83 48 37 33 29 36 50 63 82 83 76 81 69 69 71 82 82 72 70 68 71 70 75 75 76 69 69 64 62 60 57 57 62 67 66 68 71 66
89 81 81 89 89 56 37 29 26 26 31 44 59 67 87 79 85 79 84 67 67 66 61 62 59 66 68 69 67 68 72 68 71 64 56 56 55 56 60 63 66 71 70 63
85 94 84 81 56 41 34 27 23 28 34 49 60 68 83 80 79 73 69 72 69 69 70 66 56 53 54 70 63 57 59 67 64 59 53 58 56 59 60 60 59 62 64 63
91 96 88 67 39 25 24 25 22 32 36 39 51 57 65 64 66 56 51 60 72 61 67 64 54 52 55 52 58 53 49 48 52 51 52 55 54 61 63 65 62 59 60 63
79 96 70 34 20 18 28 26 27 32 38 38 50 51 54 52 53 55 52 49 56 54 56 53 53 50 52 49 41 25 32 37 40 44 44 49 52 52 54 50 50 50 54 56
99 90 51 21 25 39 44 32 27 35 35 42 41 42 52 49 49 48 44 44 47 47 48 50 47 49 49 41 25 20 18 20 22 25 27 30 30 33 38 45 50 53 50 45
97 93 66 32 34 63 64 39 32 33 40 38 36 37 44 43 43 44 44 45 45 44 46 39 38 37 33 21 10 11 15 17 20 23 24 28 32 34 38 39 39 40 39 38
100 97 73 55 44 33 30 30 32 38 36 31 28 32 35 36 39 42 42 45 44 37 35 33 25 25 15 10 7 7 10 15 20 22 23 26 27 26 27 27 26 24 22 28
99 100 99 73 74 72 43 38 40 38 33 28 20 25 28 32 36 40 35 32 29 26 23 20 22 8 9 10 8 6 8 11 16 20 20 20 21 18 17 15 13 15 17 17
99 99 98 94 83 58 40 38 42 37 36 26 18 18 25 27 29 28 26 21 23 16 17 21 15 6 6 6 6 6 8 11 13 14 15 13 10 9 10 10 10 11 10 11
100 95 96 97 86 44 40 40 38 33 28 23 18 14 24 23 27 29 21 14 12 13 13 14 9 6 7 8 8 7 8 10 10 10 8 8 8 8 8 8 9 10 11 13
98 97 96 87 78 46 43 43 32 32 21 17 12 13 25 26 26 19 15 9 9 11 13 10 7 7 8 9 10 10 9 8 8 8 9 9 9 9 8 9 9 9 12 16
97 97 96 82 75 53 45 35 27 17 12 12 13 15 19 20 22 11 8 9 9 10 10 6 6 8 8 11 11 12 10 8 8 9 10 12 13 13 14 15 12 11 13 18
97 96 94 86 74 59 43 43 25 17 12 12 11 16 14 14 14 10 7 7 9 7 6 6 8 9 10 8 10 13 13 11 11 12 14 18 18 19 21 17 13 13 17 20
97 95 88 80 71 62 54 49 29 26 26 15 18 22 17 14 10 9 6 8 6 6 6 8 10 10 8 11 16 18 17 17 17 18 21 22 23 25 24 17 15 18 23 22
97 92 82 68 68 61 55 51 47 34 37 31 24 20 15 14 12 10 8 7 6 6 6 8 8 8 11 16 22 22 23 23 24 25 27 27 28 29 23 17 20 19 23 22

GFSNW_700_rhum_093.txt.gz
RH
92 80 70 72 94 97 79 97 89 98 97 100 100 100 96 91 86 83 87 93 65 72 69 73 87 87 97 98 97 93 90 92 98 100 95 85 77 70 60 51 66 60 57 61
96 68 34 69 97 97 92 97 74 98 100 100 93 93 95 84 92 85 90 92 70 80 82 87 91 85 96 98 96 90 80 81 94 78 79 78 72 69 65 56 55 57 60 62
65 29 56 98 98 97 96 96 83 98 99 98 94 96 96 75 98 92 97 92 74 83 89 85 79 83 91 98 99 92 78 75 63 69 73 75 68 68 65 61 50 56 56 60
48 92 97 98 98 99 93 96 82 98 98 100 96 96 97 66 100 100 98 96 74 74 90 89 86 83 81 91 88 82 76 73 75 79 82 78 72 64 64 63 63 57 56 58
98 90 97 97 72 47 97 93 81 79 92 85 95 97 95 69 100 100 98 91 84 80 74 79 73 79 82 78 80 82 82 86 80 78 77 73 72 71 68 67 67 65 62 60
82 96 92 79 74 59 50 54 63 74 80 96 96 95 64 99 100 100 95 80 80 87 81 80 78 77 79 82 78 79 77 77 78 78 73 67 66 66 66 64 59 56 57 60
93 93 90 94 76 94 98 85 78 88 86 87 96 93 78 100 98 95 96 79 82 93 88 82 82 80 81 81 81 82 82 78 76 72 69 73 69 65 64 60 61 60 61 61
88 77 77 74 86 96 97 92 95 96 68 67 94 86 86 93 100 96 82 79 90 96 96 88 91 98 91 86 87 86 84 85 80 82 70 65 63 63 64 64 64 60 58 55
89 74 57 56 60 56 75 93 92 90 32 33 42 60 100 100 97 88 77 88 98 97 99 90 85 89 87 91 88 87 89 91 84 72 79 65 62 61 64 64 58 57 57 50
74 62 50 42 34 40 50 81 82 48 31 36 41 73 99 100 91 74 77 93 97 92 94 87 73 68 74 74 82 97 96 92 86 80 79 66 64 64 62 62 57 48 49 50
72 65 46 42 40 53 77 70 58 24 31 39 54 68 83 83 85 61 73 96 100 96 98 92 75 66 68 69 70 86 94 89 87 85 77 66 54 60 66 59 57 57 56 55
73 77 78 66 67 68 64 72 70 32 33 46 68 76 74 76 72 67 70 76 79 93 85 77 71 63 67 68 68 69 77 66 64 60 56 53 53 53 57 65 63 65 65 66
69 69 68 60 61 66 69 67 43 29 28 46 63 69 77 81 78 74 75 69 69 73 66 68 59 60 61 62 61 62 63 60 59 56 51 50 49 50 50 58 58 57 59 62
75 71 70 63 54 25 24 25 23 24 36 54 53 53 65 73 81 79 74 76 72 67 72 69 66 54 51 59 56 53 55 58 53 47 45 45 46 46 50 51 48 49 53 54
86 84 78 69 37 22 20 18 21 24 31 33 44 48 58 67 66 72 66 63 67 66 60 70 66 58 52 51 52 45 41 34 40 39 41 41 42 43 48 54 56 56 51 49
97 94 83 61 40 20 20 28 26 28 30 32 38 48 63 56 62 64 56 52 54 58 57 51 58 46 51 50 43 22 25 28 34 37 37 38 36 36 37 38 36 36 41 48
93 88 74 56 29 17 24 32 29 28 32 34 43 42 51 54 48 52 51 47 48 48 56 50 48 44 52 45 25 20 16 16 17 21 25 23 22 24 25 28 30 33 35 33
98 80 48 29 25 23 39 40 29 30 34 37 37 35 39 45 45 51 48 45 43 47 46 43 42 44 43 25 10 9 10 11 10 12 15 17 18 18 19 20 21 23 23 21
98 59 33 27 38 58 52 53 39 30 35 34 30 28 34 43 45 44 42 41 45 44 44 45 37 34 22 8 6 5 5 6 8 9 11 13 14 14 13 13 14 13 13 11
98 88 51 41 42 43 43 35 38 37 42 35 26 21 30 32 37 38 41 40 44 34 28 28 30 10 8 8 8 5 4 5 6 7 9 11 11 10 10 10 8 8 9 10
100 91 75 59 53 65 60 42 41 40 36 32 26 20 23 29 35 38 37 29 29 21 20 23 16 6 5 5 5 5 6 6 7 8 8 9 9 8 8 8 8 8 8 8
98 98 94 90 85 69 56 42 41 32 31 26 25 21 17 24 36 38 29 22 18 18 15 17 10 6 6 7 8 9 7 7 8 9 8 8 9 9 9 9 10 10 10 11
97 100 97 93 93 92 54 44 39 29 18 17 14 15 17 25 30 25 24 15 13 12 13 10 6 6 6 6 9 10 10 10 9 8 8 8 10 10 13 14 15 16 18 16
95 97 97 93 85 83 68 50 38 28 20 14 14 17 21 25 25 23 11 13 10 9 9 5 4 6 7 7 11 13 14 12 10 8 8 10 12 15 19 19 21 23 23 20
96 96 90 88 77 71 59 50 37 30 22 16 15 17 21 22 26 17 10 9 10 7 5 5 7 7 7 10 10 10 15 17 14 12 12 14 17 22 23 24 26 28 28 20
96 94 81 83 82 76 63 47 37 32 21 18 25 26 23 22 16 10 8 9 5 4 5 7 7 10 11 10 9 13 19 20 18 18 19 22 25 29 28 29 31 30 22 18
98 89 83 76 79 77 68 55 53 39 27 21 23 22 17 15 12 10 8 6 5 5 5 6 8 10 9 8 11 19 24 24 24 26 28 33 36 32 33 34 28 20 18 16

GFSNW_700_rhum_096.txt.gz
RH
92 96 77 72 82 90 83 82 95 97 97 98 97 99 88 97 92 98 85 94 82 70 71 80 82 85 96 95 98 97 94 96 96 88 89 78 69 61 59 57 58 56 49 58
43 38 43 73 87 84 88 78 94 98 97 96 100 93 96 91 98 96 96 99 85 59 76 91 87 93 88 89 94 84 80 80 89 80 81 74 70 60 53 49 50 64 49 60
94 91 96 95 91 87 80 71 89 98 98 94 91 96 95 94 99 96 99 95 86 74 84 75 76 86 94 95 86 79 69 60 63 69 79 75 72 67 59 47 60 56 60 74
100 93 98 98 98 96 73 85 89 93 86 90 94 96 96 88 99 95 93 94 84 76 87 75 72 70 86 89 81 77 74 76 69 78 78 73 67 63 60 52 56 64 68 68
82 96 92 74 76 76 60 64 76 93 78 90 96 96 96 72 92 91 93 95 83 77 78 78 67 64 68 75 75 69 73 80 78 78 74 70 67 63 63 59 58 61 63 67
91 89 63 45 52 46 31 49 64 74 94 96 96 96 94 74 94 90 93 97 81 77 82 79 74 73 69 63 67 67 69 66 65 70 63 61 63 63 62 60 58 60 69 63
76 65 52 74 92 85 66 49 58 81 90 86 90 94 100 95 93 93 92 93 93 85 82 83 79 77 77 74 75 76 75 70 67 67 62 64 60 59 61 61 57 58 57 55
66 45 70 82 83 74 54 56 82 92 86 60 92 100 100 98 88 94 98 82 83 88 87 84 91 92 85 89 85 82 81 75 70 79 74 62 58 57 59 55 52 50 51 52
37 26 51 58 63 72 77 84 77 79 36 27 55 74 100 98 99 100 92 91 91 96 94 85 86 84 84 83 82 82 80 79 76 70 71 57 62 59 63 62 57 50 48 47
32 9 20 26 38 46 70 79 72 54 22 22 28 46 90 98 100 99 94 99 99 89 94 88 75 73 75 85 94 98 92 93 85 80 75 59 57 58 61 58 54 48 47 45
46 27 28 31 24 28 49 64 27 17 21 23 31 46 96 99 91 88 81 99 97 87 95 91 79 66 67 68 68 89 89 87 88 86 82 65 52 59 59 53 48 49 48 49
70 48 42 36 36 44 58 58 32 20 29 29 36 44 52 76 72 72 74 70 73 79 81 76 74 61 58 60 73 63 88 69 79 68 67 42 47 48 48 49 55 55 53 54
67 63 61 59 60 64 67 62 46 16 27 38 40 47 63 72 73 63 72 62 60 72 72 74 64 59 58 59 56 57 55 58 55 51 43 44 46 42 41 44 50 52 51 51
75 70 62 60 59 63 64 44 10 16 28 41 43 46 68 69 72 70 70 70 68 67 77 75 73 62 54 54 53 52 49 52 45 41 41 40 38 38 41 43 45 44 45 47
76 78 75 68 42 20 15 12 14 18 24 27 33 39 46 61 71 74 69 66 66 64 65 62 70 59 61 48 45 31 33 27 34 31 34 34 36 37 38 40 44 42 41 39
70 72 76 70 28 18 17 24 21 20 25 30 27 36 52 46 58 60 65 63 58 58 57 56 49 47 57 48 39 18 18 21 31 32 30 30 29 31 32 31 29 26 26 23
84 85 76 70 39 24 23 29 34 28 27 31 34 38 42 56 51 59 58 50 50 48 52 52 51 47 53 46 24 16 13 13 14 16 18 17 19 18 18 18 18 19 19 17
92 94 87 73 54 29 26 28 34 30 32 33 35 34 32 43 51 54 48 48 45 45 46 42 41 42 46 28 11 9 10 9 8 7 9 11 12 12 12 13 13 12 11 11
100 96 80 67 49 33 30 36 45 39 35 36 32 30 31 40 44 47 49 48 45 39 41 39 38 39 26 10 7 5 5 5 8 6 6 8 9 10 10 10 9 9 9 9
100 100 83 50 35 31 40 52 50 43 42 40 29 26 24 30 42 47 49 43 40 43 35 33 33 14 9 8 6 5 4 5 5 5 6 7 8 9 8 9 9 9 8 8
98 97 85 49 43 46 51 45 43 42 43 44 39 28 24 26 43 48 42 42 38 32 24 26 20 6 5 6 6 6 5 5 5 5 6 7 8 9 9 10 10 10 10 10
93 91 89 85 57 54 55 59 52 41 37 35 33 27 22 21 38 42 42 33 22 26 22 22 13 5 6 6 6 6 6 6 7 7 7 8 8 9 10 10 10 12 14 16
91 98 99 97 92 81 68 61 53 43 29 26 28 26 24 24 35 38 34 24 21 15 16 11 5 5 6 7 7 8 9 9 10 9 10 9 9 9 10 11 14 18 20 21
100 99 98 90 91 85 84 75 60 46 39 28 18 25 23 26 32 32 23 22 14 12 11 6 4 4 5 6 7 7 10 16 15 13 11 9 9 10 11 15 21 24 26 27
98 94 90 88 75 70 68 70 72 63 42 29 24 26 28 28 33 27 20 12 13 7 4 4 4 5 6 7 7 12 12 12 15 14 13 12 11 13 17 23 28 30 30 33
99 96 87 76 72 71 70 66 60 50 42 40 38 39 35 32 25 21 15 12 6 5 5 7 6 6 9 12 11 11 9 11 17 19 18 16 18 21 26 34 34 34 33 27
100 97 80 78 74 68 72 64 67 56 57 54 44 37 25 22 24 18 11 10 7 5 4 4 5 6 7 8 10 9 10 14 21 23 23 24 28 34 39 36 35 30 24 22

GFSNW_700_rhum_099.txt.gz
RH
95 89 70 64 89 75 85 96 87 61 78 77 95 97 94 96 95 76 83 89 95 80 86 86 86 93 92 89 95 98 97 100 96 86 75 76 90 80 66 52 48 50 51 74
99 97 91 71 70 77 86 96 98 85 88 98 91 97 95 96 95 83 96 95 94 95 93 90 96 97 86 88 85 88 79 81 94 82 71 79 87 77 66 52 59 65 49 66
86 93 97 74 58 45 69 87 97 95 96 78 83 95 96 95 84 91 96 95 84 92 94 85 96 98 81 86 76 66 72 93 94 79 92 80 87 70 47 60 55 48 54 73
87 90 98 87 57 37 61 64 70 80 76 77 90 96 94 90 84 89 96 87 93 88 88 89 96 73 73 81 74 69 84 72 72 79 72 67 69 73 62 56 61 63 62 67
54 51 44 47 34 27 46 58 70 67 63 79 93 92 88 99 81 89 98 98 94 92 88 95 86 71 88 89 64 60 66 73 74 79 62 59 58 62 68 72 66 62 64 71
39 18 13 13 16 23 37 59 79 80 79 82 91 94 94 91 84 91 90 92 92 93 76 68 67 60 62 61 74 56 61 61 79 76 58 72 62 62 60 55 68 68 64 71
36 17 14 20 29 38 47 68 74 84 78 80 88 85 75 83 83 88 86 91 98 78 74 76 71 68 68 66 63 64 75 65 59 73 57 65 58 58 55 56 53 55 60 58
28 33 31 27 32 41 63 72 69 71 78 66 80 86 83 84 82 88 88 86 87 84 78 95 88 85 80 68 70 72 67 76 78 74 58 56 51 52 52 53 49 50 49 50
35 40 48 53 56 56 60 64 73 56 34 27 60 78 87 80 82 87 89 80 92 91 84 90 81 66 85 83 78 72 74 70 74 76 68 54 62 46 49 50 56 45 47 48
35 26 41 45 52 58 57 60 25 19 21 23 29 51 66 78 86 90 84 86 97 92 96 87 79 69 67 73 78 87 86 85 79 68 68 58 42 45 48 56 57 45 47 47
19 28 32 31 37 51 58 32 19 16 19 22 22 32 57 72 75 92 74 93 91 84 97 88 82 70 76 68 70 83 75 75 77 73 72 62 45 46 51 49 42 43 43 39
30 36 35 31 33 40 58 53 35 17 18 22 28 35 45 63 73 79 76 90 85 88 88 76 70 78 54 73 57 53 69 74 69 75 64 56 37 47 46 45 43 45 44 43
39 42 42 38 44 57 60 61 55 14 21 26 30 29 39 44 54 64 72 70 64 72 70 70 66 61 56 68 67 73 46 45 54 45 35 35 34 38 37 36 36 39 37 41
63 58 59 58 59 65 66 63 30 16 24 30 27 30 35 39 48 56 58 72 71 66 66 70 68 71 57 67 52 48 62 50 39 34 35 34 33 35 36 34 34 36 35 37
71 63 60 62 60 60 58 28 13 19 26 26 28 30 33 36 43 45 50 59 62 65 63 56 60 47 57 45 40 22 22 24 29 40 28 30 27 30 29 30 31 30 30 30
72 76 71 62 45 25 16 14 17 20 25 27 28 33 39 35 40 49 51 56 60 63 65 58 56 45 50 50 43 16 14 16 22 32 28 25 24 24 25 24 23 23 21 21
58 76 75 75 54 24 20 20 27 31 26 31 31 30 29 37 41 50 54 50 59 64 66 58 51 45 54 48 25 14 10 10 12 15 19 18 18 19 19 16 15 15 14 14
44 53 77 81 73 34 30 27 30 34 30 32 33 30 24 30 38 49 51 56 60 58 56 48 43 40 40 27 9 9 10 8 6 6 8 8 13 12 11 12 11 11 10 8
45 64 79 91 86 65 46 35 29 35 40 37 30 28 25 24 33 48 57 59 59 49 43 42 42 40 26 10 9 6 6 5 6 6 6 6 7 8 8 9 10 10 10 9
67 67 87 91 89 72 62 46 39 40 48 47 42 37 28 25 26 42 56 53 53 48 36 35 33 15 7 10 7 5 4 5 5 6 6 6 7 9 11 12 10 10 10 11
56 86 96 97 87 66 45 39 47 49 50 48 45 45 42 34 25 41 48 48 42 40 31 31 29 9 4 5 7 6 6 5 5 5 6 6 7 7 9 11 11 10 11 11
76 90 95 100 95 64 48 52 49 46 42 38 35 40 46 41 35 49 53 42 37 33 35 28 17 4 5 5 5 5 5 5 5 5 6 6 7 8 8 10 11 10 10 12
64 100 100 98 91 84 65 59 58 49 41 37 29 35 42 42 36 49 42 38 35 28 22 17 6 6 5 5 5 6 6 6 6 7 8 8 9 9 10 9 9 9 12 16
58 100 98 86 87 88 78 64 58 53 48 42 32 29 38 38 36 41 35 36 27 22 22 9 5 6 5 4 5 6 6 8 9 10 11 11 12 12 10 10 10 12 17 25
65 78 76 86 81 77 69 63 62 65 57 53 44 40 38 38 39 39 34 24 21 15 7 6 5 6 5 4 5 6 7 8 10 15 16 15 15 14 13 12 14 18 27 34
97 97 71 77 80 76 70 64 61 68 75 66 56 52 48 46 37 35 28 27 10 6 5 5 6 7 7 7 9 12 10 13 12 11 12 15 18 18 17 18 23 32 36 33
100 92 88 85 68 63 68 77 74 72 81 78 79 73 52 41 39 35 25 19 13 10 7 5 6 5 4 5 6 7 9 11 10 10 13 19 22 23 24 29 38 37 33 28

GFSNW_700_rhum_102.txt.gz
RH
65 60 47 50 59 48 39 37 48 49 44 63 81 94 92 96 75 85 82 93 76 77 78 93 90 88 89 94 96 98 97 97 92 84 81 86 80 72 65 64 60 60 78 98
71 58 42 54 54 49 34 24 31 36 63 79 86 91 100 95 98 99 96 84 83 84 92 88 93 87 93 86 84 79 86 78 92 81 81 76 79 65 56 54 54 54 78 94
50 50 37 44 45 42 46 49 62 76 78 78 86 87 82 100 88 93 85 71 61 92 88 84 91 78 80 75 74 84 86 92 93 90 84 84 78 61 56 52 59 71 78 88
24 37 35 40 41 40 47 55 65 80 88 97 86 86 74 96 87 90 78 82 96 92 85 86 80 71 79 70 68 66 72 72 79 74 74 67 77 62 60 61 63 74 78 81
14 19 28 38 46 50 50 45 61 68 78 90 84 75 84 94 80 96 96 94 81 91 78 92 90 94 91 70 75 64 70 70 76 65 64 66 62 65 63 60 63 67 70 74
10 12 25 41 55 68 76 65 58 62 76 82 87 82 82 72 80 91 92 88 92 74 69 72 64 62 65 56 53 51 60 63 70 61 54 65 64 54 56 66 65 67 68 69
17 20 27 36 46 57 70 83 54 77 71 80 79 62 65 66 77 77 82 86 82 76 68 66 65 57 53 51 50 55 72 74 63 60 61 78 59 54 52 56 65 67 68 60
22 27 36 44 58 65 58 50 45 67 55 66 73 56 64 60 67 70 76 78 79 74 71 84 82 73 77 68 53 53 53 71 75 78 59 51 45 47 50 49 51 51 51 54
39 35 42 58 64 68 47 13 19 35 47 41 65 67 57 62 55 67 71 69 80 81 72 86 80 76 76 75 68 58 57 60 71 72 71 63 58 45 44 47 49 47 50 49
51 52 59 63 63 58 28 16 18 21 23 25 42 53 43 39 54 58 57 59 77 79 85 87 79 70 64 75 74 79 83 77 77 75 70 59 50 42 44 45 52 48 42 45
27 33 43 54 59 51 34 30 19 20 21 21 27 28 38 43 50 58 54 61 65 73 77 76 84 70 71 60 65 61 77 74 78 74 72 69 45 44 46 45 44 37 40 43
18 29 34 31 40 54 49 44 28 17 23 20 26 30 41 44 45 46 42 56 70 73 78 81 71 74 70 57 59 62 48 66 67 69 65 57 52 36 43 42 39 38 41 39
40 29 33 35 34 48 61 70 43 17 27 26 25 27 36 39 44 43 47 50 55 62 63 74 65 52 58 54 64 62 46 42 48 44 36 34 31 25 38 37 34 32 33 34
54 60 45 39 42 54 58 65 46 16 26 36 33 33 36 36 41 48 54 61 62 56 60 65 64 59 50 43 37 36 35 41 32 23 24 27 21 22 25 26 27 28 26 27
48 55 61 58 56 57 61 59 25 17 27 26 28 33 37 38 40 42 46 54 62 68 66 61 61 52 52 42 37 16 17 15 22 17 19 19 17 18 20 23 24 23 24 23
54 60 62 66 63 58 56 40 17 19 25 25 23 29 37 40 39 44 46 53 61 64 64 59 59 50 54 45 28 11 10 10 12 16 18 18 16 19 16 16 16 15 15 14
28 57 63 66 72 66 40 30 24 25 29 29 30 26 24 26 38 46 52 54 65 70 73 63 54 44 53 45 17 7 12 9 8 8 11 13 12 12 14 12 12 12 10 11
17 30 46 57 68 74 62 31 25 29 32 34 30 29 29 25 25 40 45 55 62 63 65 62 49 44 42 23 6 6 7 8 6 5 6 6 10 10 10 9 10 9 9 9
23 34 43 50 61 68 79 57 38 32 34 38 34 33 29 27 25 34 51 65 64 61 57 47 50 49 30 8 7 7 5 6 5 5 5 5 5 6 6 7 8 8 8 8
20 42 51 55 62 78 87 82 67 56 48 37 39 40 39 40 38 32 41 61 61 64 45 39 38 20 9 10 10 7 6 5 4 4 5 5 6 6 7 7 7 7 8 8
21 46 65 62 80 85 78 68 60 51 47 46 43 40 40 44 46 39 41 54 48 51 45 42 36 18 8 6 6 8 7 5 5 6 6 7 7 7 7 8 8 8 8 9
34 57 73 91 99 94 75 52 50 48 46 44 43 40 40 42 50 49 46 44 44 39 47 42 27 9 8 7 4 4 6 5 6 6 5 5 5 5 6 7 8 9 9 9
38 90 100 85 76 91 78 59 55 48 46 45 43 39 37 42 52 49 43 47 45 42 36 27 17 9 7 6 5 5 5 5 6 6 6 6 6 7 8 9 10 11 10 10
79 100 99 69 70 76 78 72 64 56 54 49 46 38 32 42 46 48 43 46 42 34 28 17 10 9 7 7 6 5 6 6 6 6 6 7 8 9 10 12 14 13 12 11
94 71 57 65 55 70 70 67 68 66 63 55 53 51 49 44 45 38 39 39 30 27 12 6 6 8 6 7 6 5 5 6 6 7 8 9 10 13 15 16 16 15 15 17
65 74 52 43 46 51 65 60 58 65 69 66 64 60 54 50 46 44 35 35 21 12 10 11 10 6 6 7 6 5 7 7 8 9 9 12 13 13 15 17 18 18 21 27
97 93 78 64 57 49 47 63 72 69 71 69 74 68 76 67 59 50 46 39 31 22 19 16 13 11 6 7 7 7 8 8 9 9 13 12 11 13 17 20 22 26 32 38

GFSNW_700_rhum_105.txt.gz
RH
34 33 36 29 28 28 28 27 21 25 62 70 70 80 85 93 86 93 89 81 77 84 92 98 99 99 95 96 99 98 98 90 85 88 83 81 73 67 62 69 62 64 87 98
31 22 20 26 24 23 23 19 30 55 65 72 84 84 72 98 79 75 71 75 75 83 92 91 93 90 91 84 92 86 84 83 89 79 66 62 65 59 54 56 62 74 85 99
27 25 20 29 21 19 30 50 63 65 66 71 79 78 77 86 80 63 64 88 93 92 84 82 80 78 82 83 88 85 82 86 84 91 87 80 64 61 48 47 64 80 94 99
30 29 27 28 42 46 53 57 63 66 68 64 71 67 76 85 80 74 78 94 87 84 88 74 70 83 83 71 75 66 68 79 75 73 72 70 66 63 60 54 64 63 80 74
30 36 42 40 39 45 50 58 69 71 62 65 65 64 75 76 74 71 84 87 83 73 70 79 71 72 65 59 54 57 68 77 65 63 65 59 62 66 67 65 64 72 73 78
33 52 61 67 69 63 60 61 62 77 70 62 48 55 64 72 66 70 69 74 75 60 62 53 50 54 50 49 44 47 53 56 62 54 55 62 52 64 69 71 72 66 72 68
22 32 47 60 68 77 61 70 75 78 78 54 44 41 50 58 63 60 63 69 64 66 63 54 55 62 53 49 48 47 51 53 60 54 61 80 51 53 66 68 71 68 68 76
31 38 38 52 58 77 64 38 47 64 70 68 44 48 50 57 57 56 54 63 61 63 63 63 73 70 68 60 50 49 47 53 61 71 66 55 46 50 49 60 67 74 71 61
30 36 49 62 58 37 30 29 29 39 49 62 41 54 53 53 55 58 54 56 55 60 65 66 72 71 60 61 52 56 53 56 58 64 69 65 53 44 45 47 46 46 49 52
38 45 53 61 58 30 16 21 29 31 29 41 53 41 51 55 52 52 57 54 62 63 67 70 72 72 64 51 57 53 53 63 61 66 72 58 53 50 45 47 40 40 38 43
30 28 41 54 59 48 35 21 17 30 35 32 38 39 50 54 47 51 44 43 55 60 70 71 79 65 60 59 51 57 48 66 64 71 73 60 46 49 45 40 40 40 40 41
18 18 26 32 34 56 54 52 22 15 27 33 41 39 43 58 64 61 45 46 58 54 64 74 74 72 61 54 43 50 49 39 63 57 50 42 44 37 38 39 39 36 34 39
43 33 32 29 34 34 39 57 56 12 18 25 35 41 47 48 53 64 60 57 63 60 60 68 72 55 57 54 42 42 41 36 36 40 31 31 37 32 25 35 38 38 31 31
36 43 51 39 36 38 47 56 61 21 13 16 20 30 43 48 48 52 54 58 64 62 69 69 65 60 53 46 41 36 30 34 27 17 16 18 21 16 22 21 25 22 23 24
16 35 47 52 55 59 57 59 61 37 14 14 15 15 19 25 35 43 45 50 56 61 71 71 69 60 56 41 33 13 13 11 15 11 13 11 12 12 14 15 18 19 18 20
6 20 49 56 55 57 60 61 62 27 14 17 18 23 22 22 24 23 33 44 45 55 62 67 70 61 69 61 34 8 10 9 9 9 13 12 11 10 9 10 11 12 14 14
10 8 25 57 67 69 68 56 38 32 27 27 29 30 27 22 20 22 26 26 36 53 55 53 53 52 67 64 24 7 12 13 10 7 8 8 8 8 8 8 9 9 10 10
15 10 11 29 54 65 72 68 49 33 28 30 33 32 36 32 30 26 29 33 33 29 43 42 33 47 45 33 8 9 6 8 9 6 6 8 12 10 9 9 8 8 8 8
20 16 16 18 24 44 69 73 78 49 41 34 34 35 35 35 31 31 35 43 45 50 38 31 45 49 47 15 8 8 9 6 7 7 5 5 6 7 8 9 9 8 8 8
25 23 33 33 27 45 70 80 90 86 60 50 47 44 43 46 43 42 42 44 46 62 50 41 41 25 10 10 11 12 14 9 7 6 5 5 5 5 5 6 8 9 9 9
30 26 31 45 59 67 79 78 74 68 64 63 53 52 51 47 44 46 45 44 40 41 44 40 45 24 10 8 10 10 8 10 8 7 6 6 6 8 7 7 8 8 9 11
39 46 47 49 68 72 72 73 62 59 55 51 45 43 44 44 46 50 51 50 48 41 46 39 36 20 15 13 12 8 9 8 9 6 6 5 6 7 7 7 7 7 8 9
36 56 84 49 60 84 79 65 54 46 44 43 44 44 45 44 44 52 51 47 48 48 44 34 28 24 17 15 11 7 7 6 7 9 8 6 6 5 5 6 8 9 10 11
71 99 94 53 65 51 44 45 44 44 48 49 47 45 44 42 43 53 47 47 44 43 38 30 20 9 9 7 7 7 9 6 6 7 10 10 10 10 10 10 11 12 14 16
89 80 67 59 43 43 42 40 50 51 57 57 55 53 51 46 48 44 47 43 37 35 24 18 14 12 15 14 11 7 8 9 7 6 7 9 13 17 16 13 15 18 19 19
96 80 64 42 37 41 47 50 47 50 60 62 65 61 58 56 52 49 40 42 34 32 24 20 22 20 25 35 32 17 8 7 7 7 8 9 11 16 16 16 18 20 20 20
97 98 78 50 38 33 38 47 51 54 58 65 71 71 67 68 61 53 50 48 45 51 52 48 46 44 39 42 37 18 9 8 8 8 8 10 12 14 18 21 23 21 21 23

GFSNW_700_rhum_108.txt.gz
RH
14 14 13 14 18 18 17 20 51 64 65 61 62 84 91 90 76 79 83 75 84 89 90 97 97 95 94 97 97 96 92 85 86 74 68 72 85 84 83 65 87 79 96 98
13 14 12 13 14 16 19 37 58 61 54 56 63 67 73 75 75 71 74 88 91 92 88 84 84 89 88 88 89 91 86 75 82 70 58 68 71 58 58 64 61 88 89 98
21 18 20 18 19 30 51 55 62 59 50 54 66 71 64 66 69 84 86 86 88 84 78 74 89 88 85 76 80 79 79 84 82 82 86 80 68 54 46 52 63 76 85 93
46 33 26 37 46 50 56 58 58 60 61 62 65 65 65 54 67 82 74 82 80 73 78 76 78 74 64 65 61 60 64 68 73 73 70 74 70 64 58 48 58 61 68 74
45 47 52 42 42 48 58 66 69 65 47 54 63 63 66 53 52 65 66 67 72 76 55 58 60 60 52 46 54 57 63 66 59 57 56 69 69 65 58 53 55 58 64 69
35 45 36 35 36 44 51 60 64 65 60 50 58 61 64 66 56 57 58 56 53 60 51 52 50 42 49 47 46 46 47 48 49 48 54 54 56 63 56 56 54 50 56 58
32 41 47 41 24 24 25 43 50 62 69 60 58 60 64 69 64 62 55 57 54 49 50 51 50 44 46 40 41 43 46 47 46 50 58 64 48 68 66 63 62 62 61 54
25 37 47 53 41 15 14 18 28 37 55 62 42 56 64 68 64 63 56 57 55 52 49 46 44 46 50 49 43 43 44 46 48 58 62 46 42 48 64 68 60 64 63 53
27 37 42 53 55 31 14 12 15 25 36 39 40 45 55 63 66 65 60 60 56 52 51 50 52 52 50 48 39 44 42 47 48 54 59 64 40 38 44 57 59 49 50 50
24 37 45 49 50 52 41 29 12 14 16 26 25 36 48 58 60 56 62 62 61 58 60 57 55 55 56 47 46 45 48 61 56 57 54 33 37 44 42 52 30 30 37 43
32 21 29 39 45 52 48 49 48 13 14 17 22 26 41 51 59 62 58 56 53 64 65 67 70 73 54 52 41 34 41 50 58 67 65 45 32 41 42 33 29 32 35 36
38 42 16 20 28 34 39 41 55 46 15 14 16 19 22 27 43 54 70 58 62 67 69 77 76 71 59 52 40 33 42 32 46 38 36 31 32 33 31 32 32 36 32 29
25 40 43 22 26 30 35 36 50 51 15 13 14 16 19 23 29 35 50 60 75 85 76 81 90 78 63 56 40 37 31 32 31 28 21 24 26 30 27 24 33 36 31 28
9 28 37 45 51 41 35 40 51 60 38 15 13 12 13 16 18 22 29 36 44 59 70 84 87 77 69 69 63 52 38 35 29 20 14 16 15 15 18 19 19 28 28 28
23 8 23 36 44 51 42 52 56 60 55 24 15 16 15 15 15 16 17 21 27 33 38 40 50 51 52 49 42 21 22 20 24 15 19 15 13 13 12 11 13 19 19 18
33 16 8 25 41 55 57 57 58 59 63 34 19 21 25 25 22 22 22 27 29 32 26 28 26 26 42 47 36 10 16 14 14 12 19 22 18 17 13 10 13 15 15 14
44 26 11 12 38 47 62 61 54 50 50 35 28 27 28 25 21 22 24 25 28 35 43 38 35 35 51 35 13 7 13 13 13 18 18 11 12 12 19 14 12 13 14 12
57 34 17 10 17 34 56 72 71 64 43 37 33 30 34 35 34 33 33 32 33 36 40 39 38 38 37 28 18 10 13 13 12 11 12 9 9 14 16 15 13 10 11 12
67 44 22 16 14 18 27 67 78 77 64 46 37 35 35 38 38 33 35 38 40 50 46 46 50 38 30 23 13 15 17 17 14 16 10 11 9 9 13 14 12 11 14 15
75 49 29 31 29 33 35 61 66 86 86 82 52 45 36 41 42 44 48 49 48 50 51 50 45 31 22 10 11 12 12 11 11 10 10 11 11 7 8 10 16 18 22 24
85 54 36 48 51 57 75 80 68 70 77 68 56 60 57 48 50 52 51 48 47 46 49 46 46 28 24 24 24 19 14 11 9 9 8 12 9 12 13 10 11 15 21 21
95 64 60 59 71 68 67 71 53 50 52 42 37 47 56 59 58 55 52 51 50 52 52 44 36 28 29 25 10 9 12 12 8 8 7 10 9 9 11 12 13 11 13 16
97 84 80 86 81 79 92 61 40 38 38 33 40 41 46 48 49 51 48 49 51 53 50 41 31 30 17 9 11 9 8 7 7 9 6 11 12 7 7 8 13 16 13 14
96 99 98 72 63 52 40 24 24 33 33 40 43 44 46 47 49 49 46 48 48 46 47 33 28 20 9 13 15 12 15 21 12 8 8 7 14 12 9 8 9 11 14 18
96 94 87 70 51 39 33 37 31 30 41 44 47 48 49 48 45 44 44 44 42 42 32 28 22 19 22 24 31 33 30 32 30 8 8 8 8 13 16 18 18 18 17 19
96 92 81 70 54 47 37 27 31 36 47 50 54 54 56 54 51 48 42 44 37 33 32 33 33 39 46 43 39 36 34 29 31 25 7 8 8 9 14 18 23 24 21 22
97 94 85 78 60 42 43 38 36 48 59 56 60 60 57 59 58 55 48 35 23 32 38 44 51 50 43 43 37 30 31 37 25 11 8 8 9 10 14 24 25 23 24 27

GFSNW_700_rhum_111.txt.gz
RH
26 23 10 12 14 17 32 45 50 61 65 52 65 85 86 77 66 65 75 87 94 97 96 97 97 99 94 97 93 92 92 86 73 66 72 88 97 94 97 98 85 82 96 98
36 31 37 31 23 26 39 42 50 56 54 58 65 78 74 72 74 74 90 97 90 86 88 85 94 96 90 84 86 85 76 69 73 61 57 69 78 81 81 88 75 80 88 97
38 30 30 40 44 43 44 41 45 50 45 57 61 71 68 81 86 85 83 87 82 74 77 85 88 93 87 77 73 74 74 75 77 80 82 84 78 68 60 78 66 77 78 89
38 31 16 25 39 44 44 39 31 38 43 57 55 60 69 75 80 79 77 79 76 71 75 72 71 74 73 69 66 64 65 62 65 67 74 77 74 68 61 64 61 59 65 69
32 43 27 10 19 36 36 36 35 33 41 46 54 50 60 67 71 74 74 70 71 66 63 56 53 48 46 53 62 62 60 54 55 57 68 66 66 57 51 51 51 54 68 68
29 40 44 16 11 14 27 20 26 28 33 40 47 49 49 53 61 71 75 63 64 64 54 53 51 47 43 44 45 50 53 52 52 44 50 58 50 54 52 51 47 42 48 45
20 36 43 38 15 12 14 18 24 26 23 30 37 41 41 52 62 58 62 66 60 56 53 49 50 46 45 46 45 46 44 46 47 45 49 53 36 52 54 52 54 55 49 46
14 28 41 42 39 27 14 14 17 21 22 23 27 32 35 39 46 56 55 56 59 60 62 53 43 44 44 51 48 44 40 39 41 43 48 34 35 37 43 52 52 52 54 51
18 32 39 46 46 43 43 27 12 15 17 20 21 24 31 33 38 40 44 51 55 55 53 53 53 42 46 45 42 42 44 43 46 47 47 49 24 30 37 46 40 30 38 49
20 21 38 41 47 48 45 47 47 21 12 16 16 18 20 27 32 32 40 41 48 55 57 63 64 58 58 51 39 42 42 38 47 57 52 24 22 32 36 44 25 23 26 31
12 30 29 27 28 36 41 40 48 48 15 12 14 16 17 19 24 27 33 40 46 41 53 65 68 73 62 53 44 43 42 41 43 64 61 42 28 37 33 27 26 25 26 31
32 12 38 44 19 23 32 36 37 50 37 14 13 14 16 16 19 25 28 33 28 27 41 50 58 72 66 60 49 40 40 42 41 44 29 23 26 28 32 36 33 27 30 36
52 21 18 43 44 23 25 31 35 40 49 20 14 14 14 17 23 26 26 26 39 34 38 40 39 32 36 46 36 33 32 34 35 33 22 20 24 23 24 28 26 30 31 32
63 42 13 23 45 54 51 43 38 39 49 46 18 15 15 20 21 26 30 34 37 41 48 51 49 40 34 26 23 16 15 23 20 18 12 17 19 21 19 25 23 18 24 30
73 60 35 10 21 43 55 51 45 43 51 50 36 25 20 17 16 19 25 33 43 51 57 57 59 49 47 36 28 9 12 11 12 11 10 10 13 13 13 14 14 17 18 22
90 67 53 24 10 30 50 56 52 59 60 61 53 35 25 22 23 23 24 29 36 41 43 46 43 34 44 40 24 20 19 14 11 10 11 8 9 12 13 12 13 15 14 16
99 87 64 40 17 18 57 66 52 56 56 56 51 38 30 30 29 27 24 27 32 43 48 38 38 41 54 48 31 26 16 14 13 12 9 7 8 8 10 10 14 13 13 15
100 100 82 55 29 18 30 69 85 70 71 57 46 37 34 33 30 29 31 31 37 39 48 42 44 49 55 44 32 30 25 16 14 17 16 12 7 8 7 7 9 9 10 11
99 100 97 65 42 26 21 38 83 97 89 74 55 47 42 40 37 37 38 38 37 50 52 51 62 59 42 29 28 12 12 12 12 12 11 10 11 11 12 8 7 7 9 13
99 98 97 77 51 40 36 37 37 49 81 95 61 50 44 42 40 40 39 44 46 52 56 55 56 40 29 31 26 13 22 23 19 16 13 9 8 10 12 16 11 10 11 13
98 97 96 88 77 58 59 72 56 54 40 38 26 45 60 47 45 44 45 51 49 48 51 53 51 31 26 28 24 24 13 11 10 11 11 9 8 9 12 10 13 13 14 15
99 97 97 96 96 87 65 74 68 39 38 37 26 40 58 81 66 55 54 54 51 49 54 48 43 25 24 28 28 13 11 12 14 17 17 8 7 7 6 11 11 12 12 14
98 97 97 96 95 91 99 78 49 29 25 21 24 32 45 71 77 74 59 51 52 55 51 43 32 26 27 28 23 11 12 20 23 17 18 21 7 6 7 14 12 13 16 18
97 95 96 94 91 82 70 51 38 30 26 28 35 47 50 55 59 57 48 51 50 49 46 35 25 27 29 29 13 22 29 31 33 34 28 27 12 7 9 16 12 9 7 11
96 95 91 82 72 65 40 52 48 36 31 30 40 48 50 52 54 50 50 47 44 41 30 23 27 26 24 17 20 29 36 36 34 32 31 28 23 8 9 15 17 13 14 12
96 92 81 74 80 73 61 46 37 42 36 43 50 52 53 52 48 46 42 42 32 21 24 28 30 27 27 33 39 38 32 34 30 31 31 28 19 10 10 9 12 24 32 33
95 82 78 87 80 69 60 61 50 52 44 46 51 50 46 49 51 49 40 26 20 26 30 32 37 40 44 45 44 44 40 34 28 25 31 32 38 29 12 13 18 31 42 41